Private Wetterstation Wechselburg
Wetterdaten: Sonntag, 25.10.2009
Datum Zeit Temp. +2m Bodentemp. Temp.+5cm Temp. Wind Windchill X Diff Temp. Feuchte +2m Feuchte +5cm Sonnenschein Luftdruck Regen Wind Richtung Richtung Sonnenschein UV Taupunkt Windchill Windben
25.10.2009 00:00 6,7 C 10,4 C 6,1 C 6,2 C 5,2 C 0,0 C 90 % 94 % 0 % 1016,1 hPa 0,0 l/m 0,0 km/h (0 Bft) W-SW 247 0 min 0,0 UV-I 5,2 C 5,2 C 0,0 km/h (0 Bft)
25.10.2009 00:10 6,7 C 10,3 C 6,0 C 6,2 C 5,1 C 0,0 C 90 % 94 % 0 % 1016,2 hPa 0,0 l/m 0,0 km/h (0 Bft) NW 315 0 min 0,0 UV-I 5,2 C 5,1 C 0,0 km/h (0 Bft)
25.10.2009 00:15 6,7 C 10,3 C 6,0 C 6,1 C 5,0 C 0,0 C 90 % 94 % 0 % 1016,2 hPa 0,0 l/m 0,0 km/h (0 Bft) S-SW 202 0 min 0,0 UV-I 5,2 C 5,0 C 0,0 km/h (0 Bft)
25.10.2009 00:20 6,9 C 10,3 C 6,0 C 6,3 C 5,0 C 0,0 C 90 % 94 % 0 % 1016,2 hPa 0,0 l/m 0,2 km/h (0 Bft) S-SW 202 0 min 0,0 UV-I 5,4 C 5,0 C 0,0 km/h (0 Bft)
25.10.2009 00:25 6,7 C 10,3 C 5,9 C 6,1 C 5,0 C 0,0 C 90 % 94 % 0 % 1015,9 hPa 0,0 l/m 0,2 km/h (0 Bft) S-SW 202 0 min 0,0 UV-I 5,2 C 5,0 C 0,0 km/h (0 Bft)
25.10.2009 00:30 6,5 C 10,3 C 5,9 C 5,9 C 4,8 C 0,0 C 90 % 94 % 0 % 1015,9 hPa 0,0 l/m 0,0 km/h (0 Bft) NO 45 0 min 0,0 UV-I 5,0 C 4,8 C 0,0 km/h (0 Bft)
25.10.2009 00:35 6,5 C 10,3 C 5,9 C 5,8 C 4,5 C 0,0 C 90 % 94 % 0 % 1015,9 hPa 0,0 l/m 0,0 km/h (0 Bft) W-NW 292 0 min 0,0 UV-I 5,0 C 4,5 C 0,0 km/h (0 Bft)
25.10.2009 00:40 6,4 C 10,3 C 5,8 C 5,7 C 4,2 C 0,0 C 90 % 94 % 0 % 1015,9 hPa 0,0 l/m 0,0 km/h (0 Bft) W-NW 292 0 min 0,0 UV-I 4,9 C 4,2 C 0,0 km/h (0 Bft)
25.10.2009 00:45 6,5 C 10,3 C 5,7 C 5,7 C 4,2 C 0,0 C 90 % 94 % 0 % 1015,4 hPa 0,0 l/m 0,0 km/h (0 Bft) W-NW 292 0 min 0,0 UV-I 5,0 C 4,2 C 0,0 km/h (0 Bft)
25.10.2009 00:50 6,5 C 10,3 C 5,7 C 5,7 C 4,1 C 0,0 C 90 % 94 % 0 % 1015,4 hPa 0,0 l/m 0,0 km/h (0 Bft) W-NW 292 0 min 0,0 UV-I 5,0 C 4,1 C 0,0 km/h (0 Bft)
25.10.2009 00:55 6,3 C 10,3 C 5,6 C 5,6 C 4,1 C 0,0 C 90 % 93 % 0 % 1015,4 hPa 0,0 l/m 0,0 km/h (0 Bft) W-NW 292 0 min 0,0 UV-I 4,8 C 4,1 C 0,0 km/h (0 Bft)
25.10.2009 01:00 6,3 C 10,2 C 5,6 C 5,5 C 4,0 C 0,0 C 90 % 94 % 0 % 1015,4 hPa 0,0 l/m 0,0 km/h (0 Bft) W-NW 292 0 min 0,0 UV-I 4,8 C 4,0 C 0,0 km/h (0 Bft)
25.10.2009 01:10 6,2 C 10,2 C 5,5 C 5,4 C 3,7 C 0,0 C 90 % 94 % 0 % 1015,4 hPa 0,0 l/m 0,0 km/h (0 Bft) W-NW 292 0 min 0,0 UV-I 4,7 C 3,7 C 0,0 km/h (0 Bft)
25.10.2009 01:15 6,3 C 10,2 C 5,5 C 5,4 C 3,7 C 0,0 C 90 % 94 % 0 % 1015,4 hPa 0,0 l/m 0,0 km/h (0 Bft) W-NW 292 0 min 0,0 UV-I 4,8 C 3,7 C 0,0 km/h (0 Bft)
25.10.2009 01:20 6,2 C 10,2 C 5,5 C 5,4 C 3,8 C 0,0 C 90 % 94 % 0 % 1015,4 hPa 0,0 l/m 0,0 km/h (0 Bft) W-NW 292 0 min 0,0 UV-I 4,7 C 3,8 C 0,0 km/h (0 Bft)
25.10.2009 01:25 6,3 C 10,2 C 5,5 C 5,5 C 3,9 C 0,0 C 90 % 94 % 0 % 1015,4 hPa 0,0 l/m 0,0 km/h (0 Bft) W-NW 292 0 min 0,0 UV-I 4,8 C 3,9 C 0,0 km/h (0 Bft)
25.10.2009 01:30 6,3 C 10,2 C 5,4 C 5,5 C 4,0 C 0,0 C 90 % 94 % 0 % 1015,4 hPa 0,0 l/m 0,0 km/h (0 Bft) W-SW 247 0 min 0,0 UV-I 4,8 C 4,0 C 0,0 km/h (0 Bft)
25.10.2009 01:35 6,3 C 10,2 C 5,5 C 5,6 C 4,1 C 0,0 C 90 % 94 % 0 % 1015,4 hPa 0,0 l/m 0,0 km/h (0 Bft) W-SW 247 0 min 0,0 UV-I 4,8 C 4,1 C 0,0 km/h (0 Bft)
25.10.2009 01:40 6,3 C 10,2 C 5,3 C 5,5 C 4,0 C 0,0 C 90 % 94 % 0 % 1015,4 hPa 0,0 l/m 0,0 km/h (0 Bft) SW 225 0 min 0,0 UV-I 4,8 C 4,0 C 0,0 km/h (0 Bft)
25.10.2009 01:45 6,1 C 10,2 C 5,3 C 5,4 C 3,9 C 0,0 C 90 % 94 % 0 % 1015,1 hPa 0,0 l/m 0,0 km/h (0 Bft) NO 45 0 min 0,0 UV-I 4,6 C 3,9 C 0,0 km/h (0 Bft)
25.10.2009 01:50 6,1 C 10,2 C 5,3 C 5,3 C 3,8 C 0,0 C 90 % 94 % 0 % 1015,1 hPa 0,0 l/m 0,0 km/h (0 Bft) S 180 0 min 0,0 UV-I 4,6 C 3,8 C 0,0 km/h (0 Bft)
25.10.2009 01:55 6,0 C 10,2 C 5,3 C 5,2 C 3,7 C 0,0 C 89 % 94 % 0 % 1015,1 hPa 0,0 l/m 0,0 km/h (0 Bft) O-NO 67 0 min 0,0 UV-I 4,3 C 3,7 C 0,0 km/h (0 Bft)
25.10.2009 02:00 6,1 C 10,2 C 5,2 C 5,3 C 3,6 C 0,0 C 90 % 94 % 0 % 1015,1 hPa 0,0 l/m 0,0 km/h (0 Bft) W-SW 247 0 min 0,0 UV-I 4,6 C 3,6 C 0,0 km/h (0 Bft)
25.10.2009 02:10 5,9 C 10,0 C 5,1 C 5,0 C 3,3 C 0,0 C 89 % 94 % 0 % 1015,1 hPa 0,0 l/m 0,0 km/h (0 Bft) W-SW 247 0 min 0,0 UV-I 4,2 C 3,3 C 0,0 km/h (0 Bft)
25.10.2009 02:15 5,9 C 10,0 C 5,2 C 5,0 C 3,2 C 0,0 C 89 % 94 % 0 % 1015,1 hPa 0,0 l/m 0,0 km/h (0 Bft) W-SW 247 0 min 0,0 UV-I 4,2 C 3,2 C 0,0 km/h (0 Bft)
25.10.2009 02:20 5,9 C 10,1 C 5,1 C 5,0 C 3,3 C 0,0 C 89 % 94 % 0 % 1015,1 hPa 0,0 l/m 0,0 km/h (0 Bft) W-SW 247 0 min 0,0 UV-I 4,2 C 3,3 C 0,0 km/h (0 Bft)
25.10.2009 02:25 5,9 C 10,1 C 5,1 C 5,0 C 3,3 C 0,0 C 89 % 94 % 0 % 1015,4 hPa 0,0 l/m 0,0 km/h (0 Bft) W-SW 247 0 min 0,0 UV-I 4,2 C 3,3 C 0,0 km/h (0 Bft)
25.10.2009 02:30 5,8 C 10,1 C 5,0 C 5,0 C 3,4 C 0,0 C 89 % 94 % 0 % 1015,4 hPa 0,0 l/m 0,0 km/h (0 Bft) W-SW 247 0 min 0,0 UV-I 4,1 C 3,4 C 0,0 km/h (0 Bft)
25.10.2009 02:35 5,8 C 10,1 C 5,0 C 5,0 C 3,4 C 0,0 C 90 % 94 % 0 % 1015,4 hPa 0,0 l/m 0,0 km/h (0 Bft) W-SW 247 0 min 0,0 UV-I 4,3 C 3,4 C 0,0 km/h (0 Bft)
25.10.2009 02:40 5,9 C 10,1 C 5,1 C 5,1 C 3,4 C 0,0 C 90 % 94 % 0 % 1015,4 hPa 0,0 l/m 0,0 km/h (0 Bft) W-SW 247 0 min 0,0 UV-I 4,4 C 3,4 C 0,0 km/h (0 Bft)
25.10.2009 02:45 5,9 C 10,1 C 5,1 C 5,1 C 3,4 C 0,0 C 90 % 94 % 0 % 1015,0 hPa 0,0 l/m 0,0 km/h (0 Bft) W-SW 247 0 min 0,0 UV-I 4,4 C 3,4 C 0,0 km/h (0 Bft)
25.10.2009 02:50 5,7 C 10,1 C 4,9 C 4,9 C 3,4 C 0,0 C 89 % 94 % 0 % 1015,0 hPa 0,0 l/m 0,0 km/h (0 Bft) W-SW 247 0 min 0,0 UV-I 4,0 C 3,4 C 0,0 km/h (0 Bft)
25.10.2009 02:55 5,7 C 10,1 C 4,8 C 4,9 C 3,2 C 0,0 C 89 % 94 % 0 % 1015,0 hPa 0,0 l/m 0,0 km/h (0 Bft) W-SW 247 0 min 0,0 UV-I 4,0 C 3,2 C 0,0 km/h (0 Bft)
25.10.2009 02:00 5,7 C 10,1 C 4,8 C 4,9 C 3,3 C 0,0 C 90 % 94 % 0 % 1015,0 hPa 0,0 l/m 0,0 km/h (0 Bft) SW 225 0 min 0,0 UV-I 4,2 C 3,3 C 0,0 km/h (0 Bft)
25.10.2009 02:05 5,6 C 10,0 C 4,8 C 4,8 C 3,3 C 0,0 C 89 % 94 % 0 % 1015,1 hPa 0,0 l/m 0,0 km/h (0 Bft) N-NW 337 0 min 0,0 UV-I 3,9 C 3,3 C 0,0 km/h (0 Bft)
25.10.2009 02:10 5,5 C 10,0 C 4,7 C 4,8 C 3,3 C 0,0 C 89 % 94 % 0 % 1015,1 hPa 0,0 l/m 0,0 km/h (0 Bft) NW 315 0 min 0,0 UV-I 3,8 C 3,3 C 1,9 km/h (1 Bft)
25.10.2009 02:15 5,5 C 10,0 C 4,8 C 4,8 C 3,4 C 0,0 C 89 % 94 % 0 % 1015,1 hPa 0,0 l/m 0,2 km/h (0 Bft) NW 315 0 min 0,0 UV-I 3,8 C 3,4 C 0,0 km/h (0 Bft)
25.10.2009 02:20 5,5 C 10,0 C 4,7 C 4,8 C 3,4 C 0,0 C 89 % 94 % 0 % 1015,1 hPa 0,0 l/m 0,2 km/h (0 Bft) NW 315 0 min 0,0 UV-I 3,8 C 3,4 C 0,0 km/h (0 Bft)
25.10.2009 02:25 5,5 C 10,0 C 4,7 C 4,8 C 3,3 C 0,0 C 89 % 94 % 0 % 1015,4 hPa 0,0 l/m 0,0 km/h (0 Bft) NW 315 0 min 0,0 UV-I 3,8 C 3,3 C 0,0 km/h (0 Bft)
25.10.2009 02:30 5,5 C 10,0 C 4,7 C 4,8 C 3,3 C 0,0 C 90 % 94 % 0 % 1015,4 hPa 0,0 l/m 0,0 km/h (0 Bft) W 270 0 min 0,0 UV-I 4,0 C 3,3 C 0,0 km/h (0 Bft)
25.10.2009 02:35 5,5 C 10,0 C 4,7 C 4,8 C 3,3 C 0,0 C 90 % 94 % 0 % 1015,4 hPa 0,0 l/m 0,0 km/h (0 Bft) SW 225 0 min 0,0 UV-I 4,0 C 3,3 C 0,0 km/h (0 Bft)
25.10.2009 02:40 5,5 C 10,0 C 4,7 C 4,8 C 3,3 C 0,0 C 90 % 94 % 0 % 1015,4 hPa 0,0 l/m 0,0 km/h (0 Bft) NW 315 0 min 0,0 UV-I 4,0 C 3,3 C 0,0 km/h (0 Bft)
25.10.2009 02:45 5,5 C 10,0 C 4,6 C 4,7 C 3,2 C 0,0 C 89 % 94 % 0 % 1014,8 hPa 0,0 l/m 0,0 km/h (0 Bft) NW 315 0 min 0,0 UV-I 3,8 C 3,2 C 0,0 km/h (0 Bft)
25.10.2009 02:50 5,4 C 10,0 C 4,6 C 4,6 C 3,1 C 0,0 C 90 % 94 % 0 % 1014,8 hPa 0,0 l/m 0,0 km/h (0 Bft) NW 315 0 min 0,0 UV-I 3,9 C 3,1 C 0,0 km/h (0 Bft)
25.10.2009 02:55 5,3 C 10,0 C 4,7 C 4,6 C 3,1 C 0,0 C 90 % 94 % 0 % 1014,8 hPa 0,0 l/m 0,0 km/h (0 Bft) NW 315 0 min 0,0 UV-I 3,8 C 3,1 C 0,0 km/h (0 Bft)
25.10.2009 03:00 5,4 C 10,0 C 4,7 C 4,6 C 3,1 C 0,0 C 90 % 94 % 0 % 1014,8 hPa 0,0 l/m 0,0 km/h (0 Bft) S 180 0 min 0,0 UV-I 3,9 C 3,1 C 0,0 km/h (0 Bft)
25.10.2009 03:10 5,3 C 9,9 C 4,4 C 4,6 C 3,1 C 0,0 C 89 % 94 % 0 % 1014,6 hPa 0,0 l/m 0,2 km/h (0 Bft) W-SW 247 0 min 0,0 UV-I 3,6 C 3,1 C 2,7 km/h (1 Bft)
25.10.2009 03:15 5,2 C 10,0 C 4,5 C 4,5 C 3,0 C 0,0 C 89 % 94 % 0 % 1014,6 hPa 0,0 l/m 0,2 km/h (0 Bft) W-SW 247 0 min 0,0 UV-I 3,5 C 3,0 C 0,0 km/h (0 Bft)
25.10.2009 03:20 5,2 C 9,9 C 4,5 C 4,5 C 3,0 C 0,0 C 90 % 94 % 0 % 1014,6 hPa 0,0 l/m 0,3 km/h (0 Bft) W-SW 247 0 min 0,0 UV-I 3,7 C 3,0 C 3,2 km/h (1 Bft)
25.10.2009 03:25 5,2 C 9,9 C 4,5 C 4,5 C 3,1 C 0,0 C 89 % 94 % 0 % 1014,8 hPa 0,0 l/m 0,3 km/h (0 Bft) SW 225 0 min 0,0 UV-I 3,5 C 3,1 C 0,0 km/h (0 Bft)
25.10.2009 03:30 5,2 C 9,9 C 4,5 C 4,5 C 3,1 C 0,0 C 90 % 94 % 0 % 1014,8 hPa 0,0 l/m 0,3 km/h (0 Bft) W-SW 247 0 min 0,0 UV-I 3,7 C 3,1 C 0,0 km/h (0 Bft)
25.10.2009 03:35 5,3 C 9,9 C 4,5 C 4,6 C 3,2 C 0,0 C 89 % 94 % 0 % 1014,8 hPa 0,0 l/m 0,0 km/h (0 Bft) N-NW 337 0 min 0,0 UV-I 3,6 C 3,2 C 0,0 km/h (0 Bft)
25.10.2009 03:40 5,2 C 9,9 C 4,5 C 4,7 C 3,6 C 0,0 C 90 % 94 % 0 % 1014,8 hPa 0,0 l/m 0,0 km/h (0 Bft) SW 225 0 min 0,0 UV-I 3,7 C 3,6 C 0,0 km/h (0 Bft)
25.10.2009 03:45 5,3 C 9,9 C 4,7 C 4,8 C 3,8 C 0,0 C 90 % 94 % 0 % 1014,3 hPa 0,0 l/m 0,0 km/h (0 Bft) SW 225 0 min 0,0 UV-I 3,8 C 3,8 C 0,0 km/h (0 Bft)
25.10.2009 03:50 5,5 C 9,8 C 4,8 C 5,1 C 4,2 C 0,0 C 91 % 95 % 0 % 1014,3 hPa 0,0 l/m 0,2 km/h (0 Bft) W-NW 292 0 min 0,0 UV-I 4,2 C 4,2 C 0,0 km/h (0 Bft)
25.10.2009 03:55 5,5 C 9,8 C 4,8 C 5,1 C 4,2 C 0,0 C 90 % 95 % 0 % 1014,3 hPa 0,0 l/m 0,2 km/h (0 Bft) W 270 0 min 0,0 UV-I 4,0 C 4,2 C 0,0 km/h (0 Bft)
25.10.2009 04:00 5,5 C 9,8 C 4,9 C 5,1 C 4,4 C 0,0 C 90 % 95 % 0 % 1014,3 hPa 0,0 l/m 0,2 km/h (0 Bft) N-NO 22 0 min 0,0 UV-I 4,0 C 4,4 C 1,6 km/h (1 Bft)
25.10.2009 04:10 5,6 C 9,7 C 5,1 C 5,3 C 4,6 C 0,0 C 91 % 95 % 0 % 1014,6 hPa 0,0 l/m 0,0 km/h (0 Bft) O 90 0 min 0,0 UV-I 4,2 C 4,6 C 0,0 km/h (0 Bft)
25.10.2009 04:15 5,6 C 9,7 C 5,1 C 5,3 C 4,6 C 0,0 C 91 % 95 % 0 % 1014,6 hPa 0,0 l/m 0,0 km/h (0 Bft) O 90 0 min 0,0 UV-I 4,2 C 4,6 C 0,0 km/h (0 Bft)
25.10.2009 04:20 5,6 C 9,7 C 5,2 C 5,3 C 4,6 C 0,0 C 91 % 95 % 0 % 1014,6 hPa 0,0 l/m 0,0 km/h (0 Bft) N 360 0 min 0,0 UV-I 4,2 C 4,6 C 0,0 km/h (0 Bft)
25.10.2009 04:25 5,6 C 9,8 C 5,2 C 5,3 C 4,7 C 0,0 C 91 % 95 % 0 % 1014,9 hPa 0,0 l/m 0,0 km/h (0 Bft) N 360 0 min 0,0 UV-I 4,2 C 4,7 C 0,0 km/h (0 Bft)
25.10.2009 04:30 5,6 C 9,8 C 5,2 C 5,3 C 4,8 C 0,0 C 91 % 95 % 0 % 1014,9 hPa 0,0 l/m 0,0 km/h (0 Bft) N 360 0 min 0,0 UV-I 4,2 C 4,8 C 0,0 km/h (0 Bft)
25.10.2009 04:35 5,7 C 9,7 C 5,2 C 5,5 C 5,0 C 0,0 C 91 % 95 % 0 % 1014,9 hPa 0,0 l/m 0,0 km/h (0 Bft) N 360 0 min 0,0 UV-I 4,3 C 5,0 C 0,0 km/h (0 Bft)
25.10.2009 04:40 5,7 C 9,7 C 5,2 C 5,5 C 5,0 C 0,0 C 91 % 95 % 0 % 1014,9 hPa 0,0 l/m 0,2 km/h (0 Bft) W 270 0 min 0,0 UV-I 4,3 C 5,0 C 0,0 km/h (0 Bft)
25.10.2009 04:45 5,7 C 9,7 C 5,2 C 5,5 C 5,0 C 0,0 C 91 % 95 % 0 % 1014,3 hPa 0,0 l/m 0,2 km/h (0 Bft) W 270 0 min 0,0 UV-I 4,3 C 5,0 C 0,0 km/h (0 Bft)
25.10.2009 04:50 5,7 C 9,7 C 5,2 C 5,4 C 4,8 C 0,0 C 91 % 95 % 0 % 1014,3 hPa 0,0 l/m 0,0 km/h (0 Bft) W-SW 247 0 min 0,0 UV-I 4,3 C 4,8 C 0,0 km/h (0 Bft)
25.10.2009 04:55 5,7 C 9,7 C 5,3 C 5,4 C 4,7 C 0,0 C 91 % 95 % 0 % 1014,3 hPa 0,0 l/m 0,0 km/h (0 Bft) W-SW 247 0 min 0,0 UV-I 4,3 C 4,7 C 0,0 km/h (0 Bft)
25.10.2009 05:00 5,6 C 9,7 C 5,3 C 5,2 C 4,5 C 0,0 C 91 % 95 % 0 % 1014,3 hPa 0,0 l/m 0,0 km/h (0 Bft) W-SW 247 0 min 0,0 UV-I 4,2 C 4,5 C 0,0 km/h (0 Bft)
25.10.2009 05:10 5,7 C 9,7 C 5,3 C 5,3 C 4,6 C 0,0 C 91 % 95 % 0 % 1014,3 hPa 0,0 l/m 0,0 km/h (0 Bft) W-SW 247 0 min 0,0 UV-I 4,3 C 4,6 C 0,0 km/h (0 Bft)
25.10.2009 05:15 5,7 C 9,7 C 5,3 C 5,4 C 4,7 C 0,0 C 91 % 95 % 0 % 1014,3 hPa 0,0 l/m 0,0 km/h (0 Bft) W-SW 247 0 min 0,0 UV-I 4,3 C 4,7 C 0,0 km/h (0 Bft)
25.10.2009 05:20 5,7 C 9,7 C 5,3 C 5,4 C 4,8 C 0,0 C 91 % 95 % 0 % 1014,3 hPa 0,0 l/m 0,0 km/h (0 Bft) W-SW 247 0 min 0,0 UV-I 4,3 C 4,8 C 0,0 km/h (0 Bft)
25.10.2009 05:25 5,9 C 9,7 C 5,5 C 5,6 C 5,1 C 0,0 C 92 % 95 % 0 % 1014,3 hPa 0,0 l/m 0,0 km/h (0 Bft) NO 45 0 min 0,0 UV-I 4,7 C 5,1 C 0,0 km/h (0 Bft)
25.10.2009 05:30 5,9 C 9,6 C 5,4 C 5,7 C 5,2 C 0,0 C 92 % 95 % 0 % 1014,3 hPa 0,0 l/m 0,0 km/h (0 Bft) W-SW 247 0 min 0,0 UV-I 4,7 C 5,2 C 0,0 km/h (0 Bft)
25.10.2009 05:35 5,9 C 9,6 C 5,4 C 5,7 C 5,2 C 0,0 C 92 % 95 % 0 % 1014,3 hPa 0,0 l/m 0,0 km/h (0 Bft) W-SW 247 0 min 0,0 UV-I 4,7 C 5,2 C 0,0 km/h (0 Bft)
25.10.2009 05:40 5,9 C 9,6 C 5,3 C 5,7 C 5,2 C 0,0 C 91 % 95 % 0 % 1014,3 hPa 0,0 l/m 0,0 km/h (0 Bft) W-SW 247 0 min 0,0 UV-I 4,5 C 5,2 C 0,0 km/h (0 Bft)
25.10.2009 05:45 5,9 C 9,6 C 5,5 C 5,7 C 5,4 C 0,0 C 92 % 95 % 0 % 1014,4 hPa 0,0 l/m 0,0 km/h (0 Bft) W-SW 247 0 min 0,0 UV-I 4,7 C 5,4 C 0,0 km/h (0 Bft)
25.10.2009 05:50 6,0 C 9,6 C 5,5 C 5,9 C 5,7 C 0,0 C 92 % 95 % 0 % 1014,4 hPa 0,0 l/m 0,0 km/h (0 Bft) NO 45 0 min 0,0 UV-I 4,8 C 5,7 C 0,0 km/h (0 Bft)
25.10.2009 05:55 6,1 C 9,6 C 5,6 C 6,1 C 6,1 C 0,0 C 92 % 95 % 0 % 1014,4 hPa 0,0 l/m 0,0 km/h (0 Bft) NO 45 0 min 0,0 UV-I 4,9 C 6,1 C 0,0 km/h (0 Bft)
25.10.2009 06:00 6,3 C 9,6 C 5,9 C 6,4 C 6,4 C 0,1 C 92 % 95 % 0 % 1014,4 hPa 0,0 l/m 0,0 km/h (0 Bft) NO 45 0 min 0,0 UV-I 5,1 C 6,4 C 0,0 km/h (0 Bft)
25.10.2009 06:10 6,5 C 9,5 C 6,2 C 6,8 C 6,8 C 0,3 C 92 % 96 % 0 % 1014,1 hPa 0,0 l/m 0,0 km/h (0 Bft) NO 45 0 min 0,0 UV-I 5,3 C 6,8 C 0,0 km/h (0 Bft)
25.10.2009 06:15 6,5 C 9,5 C 6,3 C 7,0 C 7,0 C 0,5 C 92 % 96 % 0 % 1014,1 hPa 0,0 l/m 0,0 km/h (0 Bft) SW 225 0 min 0,0 UV-I 5,3 C 7,0 C 0,0 km/h (0 Bft)
25.10.2009 06:20 6,5 C 9,5 C 6,2 C 7,0 C 7,0 C 0,5 C 92 % 96 % 0 % 1014,1 hPa 0,0 l/m 0,0 km/h (0 Bft) SW 225 0 min 0,0 UV-I 5,3 C 7,0 C 0,0 km/h (0 Bft)
25.10.2009 06:25 6,6 C 9,6 C 6,2 C 7,1 C 7,1 C 0,5 C 92 % 96 % 0 % 1014,9 hPa 0,0 l/m 0,0 km/h (0 Bft) S 180 0 min 0,0 UV-I 5,4 C 7,1 C 0,0 km/h (0 Bft)
25.10.2009 06:30 6,8 C 9,5 C 6,4 C 7,3 C 7,3 C 0,5 C 92 % 96 % 0 % 1014,9 hPa 0,0 l/m 0,0 km/h (0 Bft) O-NO 67 0 min 0,0 UV-I 5,6 C 7,3 C 0,0 km/h (0 Bft)
25.10.2009 06:35 6,8 C 9,5 C 6,6 C 7,3 C 7,3 C 0,5 C 93 % 96 % 0 % 1014,9 hPa 0,0 l/m 0,0 km/h (0 Bft) NO 45 0 min 0,0 UV-I 5,7 C 7,3 C 0,0 km/h (0 Bft)
25.10.2009 06:40 7,0 C 9,5 C 6,8 C 7,4 C 7,4 C 0,4 C 93 % 96 % 0 % 1014,9 hPa 0,0 l/m 0,0 km/h (0 Bft) O-NO 67 0 min 0,0 UV-I 5,9 C 7,4 C 0,0 km/h (0 Bft)
25.10.2009 06:45 7,1 C 9,5 C 6,9 C 7,5 C 7,5 C 0,4 C 93 % 96 % 0 % 1014,4 hPa 0,0 l/m 0,2 km/h (0 Bft) O-NO 67 0 min 0,0 UV-I 6,0 C 7,5 C 0,0 km/h (0 Bft)
25.10.2009 06:50 7,1 C 9,5 C 6,8 C 7,4 C 7,4 C 0,3 C 93 % 95 % 0 % 1014,4 hPa 0,0 l/m 0,6 km/h (0 Bft) W-SW 247 0 min 0,0 UV-I 6,0 C 7,4 C 0,0 km/h (0 Bft)
25.10.2009 06:55 7,0 C 9,5 C 6,5 C 7,1 C 7,1 C 0,1 C 92 % 95 % 0 % 1014,4 hPa 0,0 l/m 0,6 km/h (0 Bft) W-SW 247 0 min 0,0 UV-I 5,8 C 7,1 C 0,0 km/h (0 Bft)
25.10.2009 07:00 6,9 C 9,5 C 6,6 C 7,1 C 7,1 C 0,2 C 92 % 95 % 0 % 1014,4 hPa 0,0 l/m 0,0 km/h (0 Bft) W-SW 247 0 min 0,0 UV-I 5,7 C 7,1 C 0,0 km/h (0 Bft)
25.10.2009 07:10 7,1 C 9,6 C 6,7 C 7,3 C 7,3 C 0,2 C 93 % 96 % 0 % 1014,4 hPa 0,0 l/m 0,0 km/h (0 Bft) NO 45 0 min 0,0 UV-I 6,0 C 7,3 C 0,0 km/h (0 Bft)
25.10.2009 07:15 7,0 C 9,7 C 6,8 C 7,3 C 7,3 C 0,3 C 92 % 96 % 0 % 1014,4 hPa 0,0 l/m 0,0 km/h (0 Bft) O-NO 67 0 min 0,0 UV-I 5,8 C 7,3 C 0,0 km/h (0 Bft)
25.10.2009 07:20 7,2 C 9,7 C 7,1 C 7,5 C 7,5 C 0,3 C 93 % 96 % 0 % 1014,4 hPa 0,0 l/m 0,0 km/h (0 Bft) W-NW 292 0 min 0,0 UV-I 6,1 C 7,5 C 0,0 km/h (0 Bft)
25.10.2009 07:25 7,3 C 9,7 C 7,1 C 7,8 C 7,8 C 0,5 C 93 % 96 % 0 % 1014,8 hPa 0,0 l/m 0,0 km/h (0 Bft) SO 135 0 min 0,0 UV-I 6,2 C 7,8 C 0,0 km/h (0 Bft)
25.10.2009 07:30 7,5 C 9,7 C 7,3 C 8,0 C 8,0 C 0,5 C 93 % 97 % 0 % 1014,8 hPa 0,0 l/m 0,3 km/h (0 Bft) O-SO 112 0 min 0,0 UV-I 6,4 C 8,0 C 0,0 km/h (0 Bft)
25.10.2009 07:35 7,6 C 9,7 C 7,4 C 8,3 C 8,3 C 0,7 C 93 % 97 % 0 % 1014,8 hPa 0,0 l/m 0,2 km/h (0 Bft) O-NO 67 0 min 0,0 UV-I 6,5 C 8,3 C 0,0 km/h (0 Bft)
25.10.2009 07:40 7,6 C 9,7 C 7,5 C 8,5 C 8,5 C 0,9 C 94 % 97 % 0 % 1014,8 hPa 0,0 l/m 0,0 km/h (0 Bft) S 180 0 min 0,0 UV-I 6,7 C 8,5 C 0,0 km/h (0 Bft)
25.10.2009 07:45 7,8 C 9,7 C 7,7 C 8,6 C 8,6 C 0,8 C 94 % 97 % 0 % 1014,8 hPa 0,0 l/m 0,0 km/h (0 Bft) O-SO 112 0 min 0,0 UV-I 6,9 C 8,6 C 2,3 km/h (1 Bft)
25.10.2009 07:50 7,8 C 9,8 C 7,7 C 8,8 C 8,8 C 1,0 C 94 % 97 % 0 % 1014,8 hPa 0,0 l/m 0,0 km/h (0 Bft) NO 45 0 min 0,0 UV-I 6,9 C 8,8 C 0,0 km/h (0 Bft)
25.10.2009 07:55 7,9 C 9,8 C 7,9 C 8,9 C 8,9 C 1,0 C 94 % 97 % 0 % 1014,8 hPa 0,0 l/m 0,0 km/h (0 Bft) O-SO 112 0 min 0,0 UV-I 7,0 C 8,9 C 0,0 km/h (0 Bft)
25.10.2009 08:00 8,1 C 9,8 C 8,1 C 9,2 C 9,2 C 1,1 C 94 % 97 % 0 % 1014,8 hPa 0,0 l/m 0,2 km/h (0 Bft) SW 225 0 min 0,0 UV-I 7,2 C 9,2 C 3,1 km/h (1 Bft)
25.10.2009 08:10 8,3 C 9,6 C 8,3 C 9,5 C 9,5 C 1,2 C 95 % 97 % 32 % 1014,8 hPa 0,0 l/m 0,2 km/h (0 Bft) SO 135 10 min 0,0 UV-I 7,5 C 9,5 C 0,0 km/h (0 Bft)
25.10.2009 08:15 8,3 C 9,6 C 8,4 C 9,6 C 9,6 C 1,3 C 95 % 97 % 34 % 1014,8 hPa 0,0 l/m 0,0 km/h (0 Bft) NW 315 5 min 0,0 UV-I 7,5 C 9,6 C 0,0 km/h (0 Bft)
25.10.2009 08:20 8,4 C 9,6 C 8,5 C 9,7 C 9,7 C 1,3 C 95 % 97 % 34 % 1014,8 hPa 0,0 l/m 0,2 km/h (0 Bft) SO 135 5 min 0,0 UV-I 7,6 C 9,7 C 0,0 km/h (0 Bft)
25.10.2009 08:25 8,5 C 9,6 C 8,6 C 9,8 C 9,8 C 1,3 C 95 % 98 % 34 % 1014,8 hPa 0,0 l/m 0,0 km/h (0 Bft) O-SO 112 5 min 0,0 UV-I 7,7 C 9,8 C 0,0 km/h (0 Bft)
25.10.2009 08:30 8,6 C 9,6 C 8,7 C 9,9 C 9,9 C 1,3 C 95 % 98 % 34 % 1014,8 hPa 0,0 l/m 0,0 km/h (0 Bft) NO 45 5 min 0,0 UV-I 7,8 C 9,9 C 0,0 km/h (0 Bft)
25.10.2009 08:35 8,7 C 9,6 C 8,8 C 10,0 C 10,0 C 1,3 C 95 % 97 % 34 % 1014,8 hPa 0,0 l/m 0,0 km/h (0 Bft) W-SW 247 5 min 0,0 UV-I 7,9 C 10,0 C 0,0 km/h (0 Bft)
25.10.2009 08:40 8,7 C 9,6 C 8,9 C 10,0 C 10,0 C 1,3 C 95 % 97 % 34 % 1014,8 hPa 0,0 l/m 0,0 km/h (0 Bft) O-SO 112 5 min 0,0 UV-I 7,9 C 10,0 C 0,0 km/h (0 Bft)
25.10.2009 08:41 7,8 C 9,7 C 7,7 C 8,6 C 8,6 C 0,8 C 94 % 97 % 21 % 1014,8 hPa 0,0 l/m 0,0 km/h (0 Bft) O-SO 112 0 min 0,0 UV-I 6,9 C 8,6 C 2,3 km/h (1 Bft)
25.10.2009 08:46 7,8 C 9,8 C 7,7 C 8,8 C 8,8 C 1,0 C 94 % 97 % 26 % 1014,8 hPa 0,0 l/m 0,0 km/h (0 Bft) NO 45 0 min 0,0 UV-I 6,9 C 8,8 C 0,0 km/h (0 Bft)
25.10.2009 08:51 7,9 C 9,8 C 7,9 C 8,9 C 8,9 C 1,0 C 94 % 97 % 26 % 1014,8 hPa 0,0 l/m 0,0 km/h (0 Bft) O-SO 112 0 min 0,0 UV-I 7,0 C 8,9 C 0,0 km/h (0 Bft)
25.10.2009 08:56 8,1 C 9,8 C 8,1 C 9,2 C 9,2 C 1,1 C 94 % 97 % 29 % 1014,8 hPa 0,0 l/m 0,2 km/h (0 Bft) SW 225 0 min 0,0 UV-I 7,2 C 9,2 C 3,1 km/h (1 Bft)
25.10.2009 09:01 8,1 C 9,7 C 8,3 C 9,3 C 9,3 C 1,2 C 94 % 97 % 32 % 1014,8 hPa 0,0 l/m 0,2 km/h (0 Bft) O 90 0 min 0,0 UV-I 7,2 C 9,3 C 0,0 km/h (0 Bft)
25.10.2009 09:06 8,3 C 9,6 C 8,3 C 9,5 C 9,5 C 1,2 C 95 % 97 % 32 % 1014,8 hPa 0,0 l/m 0,2 km/h (0 Bft) SO 135 0 min 0,0 UV-I 7,5 C 9,5 C 0,0 km/h (0 Bft)
25.10.2009 09:11 8,3 C 9,6 C 8,4 C 9,6 C 9,6 C 1,3 C 95 % 97 % 34 % 1014,8 hPa 0,0 l/m 0,0 km/h (0 Bft) NW 315 0 min 0,0 UV-I 7,5 C 9,6 C 0,0 km/h (0 Bft)
25.10.2009 09:16 8,4 C 9,6 C 8,5 C 9,7 C 9,7 C 1,3 C 95 % 97 % 34 % 1014,8 hPa 0,0 l/m 0,2 km/h (0 Bft) SO 135 0 min 0,0 UV-I 7,6 C 9,7 C 0,0 km/h (0 Bft)
25.10.2009 09:21 8,5 C 9,6 C 8,6 C 9,8 C 9,8 C 1,3 C 95 % 98 % 34 % 1014,8 hPa 0,0 l/m 0,0 km/h (0 Bft) O-SO 112 0 min 0,0 UV-I 7,7 C 9,8 C 0,0 km/h (0 Bft)
25.10.2009 09:26 8,6 C 9,6 C 8,7 C 9,9 C 9,9 C 1,3 C 95 % 98 % 34 % 1014,8 hPa 0,0 l/m 0,0 km/h (0 Bft) NO 45 0 min 0,0 UV-I 7,8 C 9,9 C 0,0 km/h (0 Bft)
25.10.2009 09:31 8,7 C 9,6 C 8,8 C 10,0 C 10,0 C 1,3 C 95 % 97 % 34 % 1014,8 hPa 0,0 l/m 0,0 km/h (0 Bft) W-SW 247 0 min 0,0 UV-I 7,9 C 10,0 C 0,0 km/h (0 Bft)
25.10.2009 08:48 8,9 C 9,7 C 8,9 C 10,1 C 10,1 C 1,2 C 95 % 97 % 32 % 1014,8 hPa 0,0 l/m 0,5 km/h (0 Bft) S 180 0 min 0,0 UV-I 8,1 C 10,1 C 2,4 km/h (1 Bft)
25.10.2009 08:50 8,9 C 9,7 C 8,9 C 10,1 C 10,1 C 1,2 C 95 % 97 % 32 % 1014,8 hPa 0,0 l/m 0,5 km/h (0 Bft) S 180 0 min 0,0 UV-I 8,1 C 10,1 C 2,4 km/h (1 Bft)
25.10.2009 08:55 8,9 C 9,7 C 8,9 C 10,1 C 10,1 C 1,2 C 95 % 97 % 32 % 1014,8 hPa 0,0 l/m 0,6 km/h (0 Bft) SW 225 0 min 0,0 UV-I 8,1 C 10,1 C 1,8 km/h (1 Bft)
25.10.2009 09:00 8,8 C 9,7 C 8,8 C 10,1 C 10,1 C 1,3 C 95 % 97 % 34 % 1014,8 hPa 0,0 l/m 0,3 km/h (0 Bft) N-NO 22 0 min 0,0 UV-I 8,0 C 10,1 C 0,0 km/h (0 Bft)
25.10.2009 09:10 9,1 C 9,7 C 9,1 C 10,1 C 10,1 C 1,0 C 95 % 97 % 26 % 1014,2 hPa 0,0 l/m 0,3 km/h (0 Bft) SW 225 0 min 0,0 UV-I 8,3 C 10,1 C 0,0 km/h (0 Bft)
25.10.2009 09:15 9,0 C 9,7 C 9,1 C 10,1 C 10,1 C 1,1 C 95 % 97 % 29 % 1014,2 hPa 0,0 l/m 0,3 km/h (0 Bft) O 90 0 min 0,0 UV-I 8,2 C 10,1 C 0,0 km/h (0 Bft)
25.10.2009 09:20 9,0 C 9,7 C 9,1 C 10,2 C 10,2 C 1,2 C 95 % 97 % 32 % 1014,2 hPa 0,0 l/m 0,0 km/h (0 Bft) N-NO 22 0 min 0,0 UV-I 8,2 C 10,2 C 0,0 km/h (0 Bft)
25.10.2009 09:25 9,2 C 9,7 C 9,2 C 10,3 C 10,3 C 1,1 C 95 % 97 % 29 % 1014,8 hPa 0,0 l/m 0,3 km/h (0 Bft) SO 135 0 min 0,0 UV-I 8,4 C 10,3 C 0,0 km/h (0 Bft)
25.10.2009 09:30 9,2 C 9,7 C 9,2 C 10,5 C 10,5 C 1,3 C 95 % 97 % 34 % 1014,8 hPa 0,0 l/m 0,3 km/h (0 Bft) NO 45 0 min 0,0 UV-I 8,4 C 10,5 C 5,1 km/h (1 Bft)
25.10.2009 09:35 9,5 C 9,7 C 9,3 C 10,7 C 10,7 C 1,2 C 95 % 97 % 32 % 1014,8 hPa 0,0 l/m 0,2 km/h (0 Bft) N-NW 337 0 min 0,0 UV-I 8,7 C 10,7 C 0,0 km/h (0 Bft)
25.10.2009 09:40 9,5 C 9,8 C 9,5 C 10,9 C 10,9 C 1,4 C 95 % 97 % 37 % 1014,8 hPa 0,0 l/m 0,2 km/h (0 Bft) S 180 0 min 0,0 UV-I 8,7 C 10,9 C 0,0 km/h (0 Bft)
25.10.2009 09:45 9,5 C 9,8 C 9,4 C 10,9 C 10,9 C 1,4 C 95 % 97 % 37 % 1014,6 hPa 0,0 l/m 0,2 km/h (0 Bft) NW 315 0 min 0,0 UV-I 8,7 C 10,9 C 0,0 km/h (0 Bft)
25.10.2009 09:50 9,7 C 9,8 C 9,5 C 11,0 C 11,0 C 1,3 C 95 % 97 % 34 % 1014,6 hPa 0,0 l/m 0,0 km/h (0 Bft) SW 225 0 min 0,0 UV-I 8,9 C 11,0 C 0,0 km/h (0 Bft)
25.10.2009 09:55 9,6 C 9,8 C 9,6 C 11,1 C 11,1 C 1,5 C 95 % 97 % 39 % 1014,6 hPa 0,0 l/m 0,0 km/h (0 Bft) NO 45 0 min 0,0 UV-I 8,8 C 11,1 C 0,0 km/h (0 Bft)
25.10.2009 10:00 9,9 C 9,8 C 9,7 C 11,3 C 11,3 C 1,4 C 95 % 97 % 37 % 1014,6 hPa 0,0 l/m 0,0 km/h (0 Bft) O-NO 67 0 min 0,1 UV-I 9,1 C 11,3 C 0,0 km/h (0 Bft)
25.10.2009 10:10 10,0 C 9,8 C 9,9 C 11,6 C 11,6 C 1,6 C 95 % 97 % 42 % 1014,8 hPa 0,0 l/m 0,0 km/h (0 Bft) NO 45 0 min 0,1 UV-I 9,2 C 11,6 C 0,0 km/h (0 Bft)
25.10.2009 10:15 9,9 C 9,8 C 9,8 C 11,7 C 11,7 C 1,8 C 95 % 97 % 47 % 1014,8 hPa 0,0 l/m 0,0 km/h (0 Bft) NO 45 0 min 0,1 UV-I 9,1 C 11,7 C 0,0 km/h (0 Bft)
25.10.2009 10:20 10,1 C 9,7 C 9,9 C 11,9 C 11,9 C 1,8 C 95 % 97 % 47 % 1014,8 hPa 0,0 l/m 0,0 km/h (0 Bft) O 90 0 min 0,2 UV-I 9,3 C 11,9 C 0,0 km/h (0 Bft)
25.10.2009 10:25 10,0 C 9,7 C 10,0 C 12,1 C 12,1 C 2,1 C 95 % 97 % 55 % 1014,6 hPa 0,0 l/m 0,0 km/h (0 Bft) W-SW 247 0 min 0,2 UV-I 9,2 C 12,1 C 0,0 km/h (0 Bft)
25.10.2009 10:30 10,1 C 9,6 C 10,0 C 12,3 C 12,3 C 2,2 C 95 % 97 % 58 % 1014,6 hPa 0,0 l/m 0,0 km/h (0 Bft) SW 225 0 min 0,2 UV-I 9,3 C 12,3 C 0,0 km/h (0 Bft)
25.10.2009 10:35 10,3 C 9,7 C 10,1 C 12,4 C 12,4 C 2,1 C 95 % 97 % 55 % 1014,6 hPa 0,0 l/m 0,0 km/h (0 Bft) S-SW 202 0 min 0,2 UV-I 9,5 C 12,4 C 0,0 km/h (0 Bft)
25.10.2009 10:40 10,3 C 9,6 C 10,2 C 12,6 C 12,6 C 2,3 C 94 % 97 % 61 % 1014,6 hPa 0,0 l/m 0,3 km/h (0 Bft) S-SO 157 0 min 0,2 UV-I 9,4 C 12,6 C 3,7 km/h (1 Bft)
25.10.2009 10:45 10,4 C 9,6 C 10,3 C 12,7 C 12,7 C 2,3 C 94 % 97 % 61 % 1014,8 hPa 0,0 l/m 0,3 km/h (0 Bft) SO 135 0 min 0,2 UV-I 9,5 C 12,7 C 0,0 km/h (0 Bft)
25.10.2009 10:50 10,4 C 9,7 C 10,3 C 12,8 C 12,8 C 2,4 C 94 % 97 % 63 % 1014,8 hPa 0,0 l/m 0,6 km/h (0 Bft) SW 225 0 min 0,3 UV-I 9,5 C 12,8 C 2,6 km/h (1 Bft)
25.10.2009 10:55 10,5 C 9,7 C 10,4 C 12,9 C 12,9 C 2,4 C 94 % 97 % 63 % 1014,8 hPa 0,0 l/m 1,3 km/h (1 Bft) SW 225 0 min 0,3 UV-I 9,6 C 12,9 C 2,9 km/h (1 Bft)
25.10.2009 11:00 10,7 C 9,7 C 10,5 C 13,0 C 13,0 C 2,3 C 94 % 97 % 61 % 1014,8 hPa 0,0 l/m 1,8 km/h (1 Bft) NW 315 0 min 0,3 UV-I 9,8 C 13,0 C 1,6 km/h (1 Bft)
25.10.2009 11:10 11,0 C 9,6 C 10,8 C 13,6 C 13,6 C 2,6 C 94 % 97 % 68 % 1014,6 hPa 0,0 l/m 1,0 km/h (0 Bft) W-SW 247 0 min 0,4 UV-I 10,1 C 13,6 C 0,0 km/h (0 Bft)
25.10.2009 11:15 11,1 C 9,6 C 10,9 C 13,9 C 13,9 C 2,8 C 94 % 98 % 74 % 1014,6 hPa 0,0 l/m 0,8 km/h (0 Bft) S 180 0 min 0,4 UV-I 10,2 C 13,9 C 0,0 km/h (0 Bft)
25.10.2009 11:20 11,2 C 9,6 C 11,2 C 14,4 C 14,4 C 3,2 C 94 % 98 % 84 % 1014,6 hPa 0,0 l/m 1,6 km/h (1 Bft) W-SW 247 0 min 0,4 UV-I 10,3 C 14,4 C 0,0 km/h (0 Bft)
25.10.2009 11:25 11,5 C 9,6 C 11,2 C 14,6 C 14,6 C 3,1 C 93 % 98 % 82 % 1013,9 hPa 0,0 l/m 2,3 km/h (1 Bft) SW 225 0 min 0,4 UV-I 10,4 C 14,6 C 5,8 km/h (2 Bft)
25.10.2009 11:30 11,6 C 9,5 C 11,5 C 14,8 C 14,8 C 3,2 C 93 % 97 % 84 % 1013,9 hPa 0,0 l/m 3,2 km/h (1 Bft) SW 225 0 min 0,3 UV-I 10,5 C 14,8 C 12,1 km/h (2 Bft)
25.10.2009 11:35 11,6 C 9,5 C 11,6 C 14,8 C 14,8 C 3,2 C 92 % 96 % 84 % 1013,9 hPa 0,0 l/m 4,2 km/h (1 Bft) S 180 0 min 0,3 UV-I 10,3 C 14,8 C 12,6 km/h (3 Bft)
25.10.2009 11:40 11,9 C 9,5 C 11,7 C 15,0 C 15,0 C 3,1 C 92 % 96 % 82 % 1013,9 hPa 0,0 l/m 3,1 km/h (1 Bft) S-SW 202 0 min 0,4 UV-I 10,6 C 15,0 C 2,6 km/h (1 Bft)
25.10.2009 11:45 11,9 C 9,5 C 11,7 C 15,0 C 15,0 C 3,1 C 92 % 96 % 82 % 1013,8 hPa 0,0 l/m 2,4 km/h (1 Bft) W-SW 247 0 min 0,4 UV-I 10,6 C 15,0 C 2,4 km/h (1 Bft)
25.10.2009 11:50 11,9 C 9,5 C 11,9 C 14,9 C 14,9 C 3,0 C 91 % 96 % 79 % 1013,8 hPa 0,0 l/m 2,4 km/h (1 Bft) O-NO 67 0 min 0,3 UV-I 10,5 C 14,9 C 5,3 km/h (1 Bft)
25.10.2009 11:55 12,0 C 9,5 C 11,9 C 14,9 C 14,9 C 2,9 C 91 % 96 % 76 % 1013,8 hPa 0,0 l/m 1,8 km/h (1 Bft) W-SW 247 0 min 0,3 UV-I 10,6 C 14,9 C 2,6 km/h (1 Bft)
25.10.2009 12:00 12,0 C 9,5 C 11,9 C 14,8 C 14,8 C 2,8 C 91 % 95 % 74 % 1013,8 hPa 0,0 l/m 0,8 km/h (0 Bft) S 180 0 min 0,2 UV-I 10,6 C 14,8 C 2,1 km/h (1 Bft)
25.10.2009 12:10 12,0 C 9,6 C 12,0 C 14,6 C 14,6 C 2,6 C 91 % 95 % 68 % 1014,0 hPa 0,0 l/m 1,4 km/h (1 Bft) W-SW 247 0 min 0,3 UV-I 10,6 C 14,6 C 4,0 km/h (1 Bft)
25.10.2009 12:15 12,2 C 9,5 C 12,0 C 14,6 C 14,6 C 2,4 C 90 % 95 % 63 % 1014,0 hPa 0,0 l/m 1,4 km/h (1 Bft) NW 315 0 min 0,3 UV-I 10,6 C 14,6 C 2,9 km/h (1 Bft)
25.10.2009 12:20 12,3 C 9,5 C 12,1 C 14,8 C 14,8 C 2,5 C 90 % 94 % 66 % 1014,0 hPa 0,0 l/m 1,9 km/h (1 Bft) S 180 0 min 0,4 UV-I 10,7 C 14,8 C 3,5 km/h (1 Bft)
25.10.2009 12:25 12,1 C 9,5 C 12,1 C 14,8 C 14,8 C 2,7 C 90 % 94 % 71 % 1014,1 hPa 0,0 l/m 2,1 km/h (1 Bft) NO 45 0 min 0,4 UV-I 10,5 C 14,8 C 0,0 km/h (0 Bft)
25.10.2009 12:30 12,1 C 9,6 C 12,0 C 14,8 C 14,8 C 2,7 C 90 % 93 % 71 % 1014,1 hPa 0,0 l/m 1,4 km/h (1 Bft) SW 225 0 min 0,3 UV-I 10,5 C 14,8 C 1,6 km/h (1 Bft)
25.10.2009 12:35 12,1 C 9,6 C 12,0 C 14,7 C 14,7 C 2,6 C 90 % 94 % 68 % 1014,1 hPa 0,0 l/m 1,1 km/h (1 Bft) O-SO 112 0 min 0,3 UV-I 10,5 C 14,7 C 1,9 km/h (1 Bft)
25.10.2009 12:40 12,1 C 9,6 C 12,0 C 14,5 C 14,5 C 2,4 C 90 % 94 % 63 % 1014,1 hPa 0,0 l/m 2,1 km/h (1 Bft) W-SW 247 0 min 0,2 UV-I 10,5 C 14,5 C 6,4 km/h (2 Bft)
25.10.2009 12:45 12,0 C 9,6 C 12,0 C 14,3 C 14,3 C 2,3 C 90 % 93 % 61 % 1014,1 hPa 0,0 l/m 3,4 km/h (1 Bft) SW 225 0 min 0,2 UV-I 10,4 C 14,3 C 7,7 km/h (2 Bft)
25.10.2009 12:50 12,0 C 9,6 C 12,0 C 14,1 C 14,1 C 2,1 C 89 % 93 % 55 % 1014,1 hPa 0,0 l/m 4,2 km/h (1 Bft) SW 225 0 min 0,2 UV-I 10,2 C 14,1 C 5,0 km/h (1 Bft)
25.10.2009 12:55 12,0 C 9,6 C 12,0 C 14,0 C 14,0 C 2,0 C 89 % 92 % 53 % 1014,1 hPa 0,0 l/m 4,0 km/h (1 Bft) SW 225 0 min 0,2 UV-I 10,2 C 14,0 C 7,6 km/h (2 Bft)
25.10.2009 13:00 12,0 C 9,6 C 12,0 C 13,7 C 13,7 C 1,7 C 90 % 93 % 45 % 1014,1 hPa 0,0 l/m 3,9 km/h (1 Bft) W-SW 247 0 min 0,1 UV-I 10,4 C 13,7 C 9,8 km/h (2 Bft)
25.10.2009 13:10 12,0 C 9,9 C 12,0 C 13,3 C 13,3 C 1,3 C 90 % 93 % 34 % 1014,1 hPa 0,0 l/m 3,1 km/h (1 Bft) SW 225 0 min 0,2 UV-I 10,4 C 13,3 C 5,1 km/h (1 Bft)
25.10.2009 13:11 12,2 C 9,5 C 12,0 C 14,6 C 14,6 C 2,4 C 90 % 95 % 63 % 1014,0 hPa 0,0 l/m 1,4 km/h (1 Bft) NW 315 0 min 0,3 UV-I 10,6 C 14,6 C 2,9 km/h (1 Bft)
25.10.2009 13:16 12,3 C 9,5 C 12,1 C 14,8 C 14,8 C 2,5 C 90 % 94 % 66 % 1014,0 hPa 0,0 l/m 1,9 km/h (1 Bft) S 180 0 min 0,4 UV-I 10,7 C 14,8 C 3,5 km/h (1 Bft)
25.10.2009 13:21 12,1 C 9,5 C 12,1 C 14,8 C 14,8 C 2,7 C 90 % 94 % 71 % 1014,1 hPa 0,0 l/m 2,1 km/h (1 Bft) NO 45 0 min 0,4 UV-I 10,5 C 14,8 C 0,0 km/h (0 Bft)
25.10.2009 13:26 12,1 C 9,6 C 12,0 C 14,8 C 14,8 C 2,7 C 90 % 93 % 71 % 1014,1 hPa 0,0 l/m 1,4 km/h (1 Bft) SW 225 0 min 0,3 UV-I 10,5 C 14,8 C 1,6 km/h (1 Bft)
25.10.2009 13:31 12,1 C 9,6 C 12,0 C 14,7 C 14,7 C 2,6 C 90 % 94 % 68 % 1014,1 hPa 0,0 l/m 1,1 km/h (1 Bft) O-SO 112 0 min 0,3 UV-I 10,5 C 14,7 C 1,9 km/h (1 Bft)
25.10.2009 13:36 12,1 C 9,6 C 12,0 C 14,5 C 14,5 C 2,4 C 90 % 94 % 63 % 1014,1 hPa 0,0 l/m 2,1 km/h (1 Bft) W-SW 247 0 min 0,2 UV-I 10,5 C 14,5 C 6,4 km/h (2 Bft)
25.10.2009 13:41 12,0 C 9,6 C 12,0 C 14,3 C 14,3 C 2,3 C 90 % 93 % 61 % 1014,1 hPa 0,0 l/m 3,4 km/h (1 Bft) SW 225 0 min 0,2 UV-I 10,4 C 14,3 C 7,7 km/h (2 Bft)
25.10.2009 13:46 12,0 C 9,6 C 12,0 C 14,1 C 14,1 C 2,1 C 89 % 93 % 55 % 1014,1 hPa 0,0 l/m 4,2 km/h (1 Bft) SW 225 0 min 0,2 UV-I 10,2 C 14,1 C 5,0 km/h (1 Bft)
25.10.2009 13:51 12,0 C 9,6 C 12,0 C 14,0 C 14,0 C 2,0 C 89 % 92 % 53 % 1014,1 hPa 0,0 l/m 4,0 km/h (1 Bft) SW 225 0 min 0,2 UV-I 10,2 C 14,0 C 7,6 km/h (2 Bft)
25.10.2009 13:56 12,0 C 9,6 C 12,0 C 13,7 C 13,7 C 1,7 C 90 % 93 % 45 % 1014,1 hPa 0,0 l/m 3,9 km/h (1 Bft) W-SW 247 0 min 0,1 UV-I 10,4 C 13,7 C 9,8 km/h (2 Bft)
25.10.2009 14:01 12,1 C 9,6 C 12,0 C 13,5 C 13,5 C 1,4 C 90 % 93 % 37 % 1014,1 hPa 0,0 l/m 3,5 km/h (1 Bft) O-SO 112 0 min 0,1 UV-I 10,5 C 13,5 C 0,0 km/h (0 Bft)
25.10.2009 13:30 11,7 C 10,0 C 11,7 C 12,6 C 12,6 C 0,9 C 91 % 94 % 24 % 1014,4 hPa 0,0 l/m 2,9 km/h (1 Bft) S-SW 202 0 min 0,1 UV-I 10,3 C 12,6 C 3,7 km/h (1 Bft)
25.10.2009 13:35 11,6 C 10,1 C 11,6 C 12,6 C 12,6 C 1,0 C 91 % 94 % 26 % 1014,4 hPa 0,0 l/m 2,4 km/h (1 Bft) W-SW 247 0 min 0,1 UV-I 10,2 C 12,6 C 3,4 km/h (1 Bft)
25.10.2009 13:40 11,6 C 10,1 C 11,6 C 12,6 C 12,6 C 1,0 C 92 % 94 % 26 % 1014,4 hPa 0,0 l/m 2,6 km/h (1 Bft) W-SW 247 0 min 0,1 UV-I 10,3 C 12,6 C 3,7 km/h (1 Bft)
25.10.2009 13:45 11,6 C 10,1 C 11,6 C 12,6 C 12,6 C 1,0 C 92 % 95 % 26 % 1014,1 hPa 0,0 l/m 2,6 km/h (1 Bft) S-SO 157 0 min 0,1 UV-I 10,3 C 12,6 C 0,0 km/h (0 Bft)
25.10.2009 13:50 11,6 C 10,2 C 11,6 C 12,6 C 12,6 C 1,0 C 92 % 95 % 26 % 1014,1 hPa 0,0 l/m 1,9 km/h (1 Bft) SW 225 0 min 0,1 UV-I 10,3 C 12,6 C 3,2 km/h (1 Bft)
25.10.2009 13:55 11,7 C 10,1 C 11,6 C 12,6 C 12,6 C 0,9 C 92 % 95 % 24 % 1014,1 hPa 0,0 l/m 2,3 km/h (1 Bft) W 270 0 min 0,1 UV-I 10,4 C 12,6 C 2,6 km/h (1 Bft)
25.10.2009 14:00 11,7 C 10,1 C 11,7 C 12,6 C 12,6 C 0,9 C 92 % 95 % 24 % 1014,1 hPa 0,0 l/m 2,7 km/h (1 Bft) S 180 0 min 0,1 UV-I 10,4 C 12,6 C 2,3 km/h (1 Bft)
25.10.2009 14:10 11,7 C 10,1 C 11,7 C 12,7 C 12,7 C 1,0 C 92 % 95 % 26 % 1014,2 hPa 0,0 l/m 1,1 km/h (1 Bft) O-SO 112 0 min 0,1 UV-I 10,4 C 12,7 C 0,0 km/h (0 Bft)
25.10.2009 14:15 11,8 C 10,1 C 11,6 C 12,8 C 12,8 C 1,0 C 92 % 95 % 26 % 1014,2 hPa 0,0 l/m 0,6 km/h (0 Bft) SW 225 0 min 0,1 UV-I 10,5 C 12,8 C 3,7 km/h (1 Bft)
25.10.2009 14:20 11,9 C 10,1 C 11,6 C 12,9 C 12,9 C 1,0 C 92 % 95 % 26 % 1014,2 hPa 0,0 l/m 0,5 km/h (0 Bft) W-SW 247 0 min 0,1 UV-I 10,6 C 12,9 C 0,0 km/h (0 Bft)
25.10.2009 14:25 11,9 C 10,1 C 11,6 C 13,0 C 13,0 C 1,1 C 92 % 95 % 29 % 1014,2 hPa 0,0 l/m 0,6 km/h (0 Bft) S 180 0 min 0,1 UV-I 10,6 C 13,0 C 0,0 km/h (0 Bft)
25.10.2009 14:30 11,9 C 10,1 C 11,7 C 13,1 C 13,1 C 1,2 C 92 % 95 % 32 % 1014,2 hPa 0,0 l/m 0,5 km/h (0 Bft) SW 225 0 min 0,1 UV-I 10,6 C 13,1 C 2,1 km/h (1 Bft)
25.10.2009 14:35 11,9 C 10,1 C 11,7 C 13,2 C 13,2 C 1,3 C 92 % 95 % 34 % 1014,2 hPa 0,0 l/m 0,5 km/h (0 Bft) S-SO 157 0 min 0,1 UV-I 10,6 C 13,2 C 0,0 km/h (0 Bft)
25.10.2009 14:40 11,9 C 10,1 C 11,7 C 13,3 C 13,3 C 1,4 C 92 % 95 % 37 % 1014,2 hPa 0,0 l/m 0,8 km/h (0 Bft) O-SO 112 0 min 0,0 UV-I 10,6 C 13,3 C 6,1 km/h (2 Bft)
25.10.2009 14:45 11,9 C 10,1 C 11,9 C 13,3 C 13,3 C 1,4 C 92 % 95 % 37 % 1014,2 hPa 0,0 l/m 0,8 km/h (0 Bft) S-SO 157 0 min 0,0 UV-I 10,6 C 13,3 C 1,9 km/h (1 Bft)
25.10.2009 14:50 11,9 C 10,1 C 11,7 C 13,2 C 13,2 C 1,3 C 92 % 95 % 34 % 1014,2 hPa 0,0 l/m 0,6 km/h (0 Bft) O-SO 112 0 min 0,0 UV-I 10,6 C 13,2 C 0,0 km/h (0 Bft)
25.10.2009 14:55 11,9 C 10,1 C 11,7 C 13,2 C 13,2 C 1,3 C 92 % 95 % 34 % 1014,2 hPa 0,0 l/m 0,3 km/h (0 Bft) SW 225 0 min 0,0 UV-I 10,6 C 13,2 C 0,0 km/h (0 Bft)
25.10.2009 15:00 11,9 C 10,1 C 11,8 C 13,2 C 13,2 C 1,3 C 92 % 95 % 34 % 1014,2 hPa 0,0 l/m 0,3 km/h (0 Bft) S-SW 202 0 min 0,0 UV-I 10,6 C 13,2 C 0,0 km/h (0 Bft)
25.10.2009 15:10 11,9 C 10,1 C 11,8 C 13,1 C 13,1 C 1,2 C 92 % 95 % 32 % 1014,3 hPa 0,0 l/m 0,8 km/h (0 Bft) N-NO 22 0 min 0,0 UV-I 10,6 C 13,1 C 2,4 km/h (1 Bft)
25.10.2009 15:15 11,8 C 10,1 C 11,7 C 13,0 C 13,0 C 1,2 C 92 % 95 % 32 % 1014,3 hPa 0,0 l/m 0,8 km/h (0 Bft) SW 225 0 min 0,0 UV-I 10,5 C 13,0 C 1,8 km/h (1 Bft)
25.10.2009 15:20 11,9 C 10,2 C 11,8 C 13,0 C 13,0 C 1,1 C 92 % 95 % 29 % 1014,3 hPa 0,0 l/m 0,3 km/h (0 Bft) S 180 0 min 0,0 UV-I 10,6 C 13,0 C 0,0 km/h (0 Bft)
25.10.2009 15:21 11,9 C 10,1 C 11,6 C 13,0 C 13,0 C 1,1 C 92 % 95 % 29 % 1014,2 hPa 0,0 l/m 0,6 km/h (0 Bft) S 180 0 min 0,1 UV-I 10,6 C 13,0 C 0,0 km/h (0 Bft)
25.10.2009 15:26 11,9 C 10,1 C 11,7 C 13,1 C 13,1 C 1,2 C 92 % 95 % 32 % 1014,2 hPa 0,0 l/m 0,5 km/h (0 Bft) SW 225 0 min 0,1 UV-I 10,6 C 13,1 C 2,1 km/h (1 Bft)
25.10.2009 15:31 11,9 C 10,1 C 11,7 C 13,2 C 13,2 C 1,3 C 92 % 95 % 34 % 1014,2 hPa 0,0 l/m 0,5 km/h (0 Bft) S-SO 157 0 min 0,1 UV-I 10,6 C 13,2 C 0,0 km/h (0 Bft)
25.10.2009 15:36 11,9 C 10,1 C 11,7 C 13,3 C 13,3 C 1,4 C 92 % 95 % 37 % 1014,2 hPa 0,0 l/m 0,8 km/h (0 Bft) O-SO 112 0 min 0,0 UV-I 10,6 C 13,3 C 6,1 km/h (2 Bft)
25.10.2009 15:41 11,9 C 10,1 C 11,9 C 13,3 C 13,3 C 1,4 C 92 % 95 % 37 % 1014,2 hPa 0,0 l/m 0,8 km/h (0 Bft) S-SO 157 0 min 0,0 UV-I 10,6 C 13,3 C 1,9 km/h (1 Bft)
25.10.2009 15:46 11,9 C 10,1 C 11,7 C 13,2 C 13,2 C 1,3 C 92 % 95 % 34 % 1014,2 hPa 0,0 l/m 0,6 km/h (0 Bft) O-SO 112 0 min 0,0 UV-I 10,6 C 13,2 C 0,0 km/h (0 Bft)
25.10.2009 15:51 11,9 C 10,1 C 11,7 C 13,2 C 13,2 C 1,3 C 92 % 95 % 34 % 1014,2 hPa 0,0 l/m 0,3 km/h (0 Bft) SW 225 0 min 0,0 UV-I 10,6 C 13,2 C 0,0 km/h (0 Bft)
25.10.2009 15:56 11,9 C 10,1 C 11,8 C 13,2 C 13,2 C 1,3 C 92 % 95 % 34 % 1014,2 hPa 0,0 l/m 0,3 km/h (0 Bft) S-SW 202 0 min 0,0 UV-I 10,6 C 13,2 C 0,0 km/h (0 Bft)
25.10.2009 16:01 11,8 C 10,1 C 11,7 C 13,2 C 13,2 C 1,4 C 92 % 95 % 37 % 1014,3 hPa 0,0 l/m 0,5 km/h (0 Bft) N 360 0 min 0,0 UV-I 10,5 C 13,2 C 0,0 km/h (0 Bft)
25.10.2009 16:06 11,9 C 10,1 C 11,8 C 13,1 C 13,1 C 1,2 C 92 % 95 % 32 % 1014,3 hPa 0,0 l/m 0,8 km/h (0 Bft) N-NO 22 0 min 0,0 UV-I 10,6 C 13,1 C 2,4 km/h (1 Bft)
25.10.2009 16:11 11,8 C 10,1 C 11,7 C 13,0 C 13,0 C 1,2 C 92 % 95 % 32 % 1014,3 hPa 0,0 l/m 0,8 km/h (0 Bft) SW 225 0 min 0,0 UV-I 10,5 C 13,0 C 1,8 km/h (1 Bft)
25.10.2009 15:29 11,9 C 10,3 C 11,7 C 12,8 C 12,8 C 0,9 C 93 % 95 % 24 % 1012,9 hPa 0,0 l/m 0,2 km/h (0 Bft) NO 45 0 min 0,0 UV-I 10,8 C 12,8 C 0,0 km/h (0 Bft)
25.10.2009 15:30 11,9 C 10,3 C 11,7 C 12,8 C 12,8 C 0,9 C 93 % 95 % 24 % 1012,9 hPa 0,0 l/m 0,2 km/h (0 Bft) NO 45 0 min 0,0 UV-I 10,8 C 12,8 C 0,0 km/h (0 Bft)
25.10.2009 15:35 11,9 C 10,3 C 11,6 C 12,8 C 12,8 C 0,9 C 92 % 95 % 24 % 1012,9 hPa 0,0 l/m 0,0 km/h (0 Bft) NO 45 0 min 0,0 UV-I 10,6 C 12,8 C 0,0 km/h (0 Bft)
25.10.2009 15:40 11,9 C 10,3 C 11,6 C 12,8 C 12,8 C 0,9 C 93 % 95 % 24 % 1012,9 hPa 0,0 l/m 0,2 km/h (0 Bft) NO 45 0 min 0,0 UV-I 10,8 C 12,8 C 0,0 km/h (0 Bft)
25.10.2009 15:45 11,9 C 10,3 C 11,6 C 12,8 C 12,8 C 0,9 C 93 % 95 % 24 % 1012,9 hPa 0,0 l/m 0,2 km/h (0 Bft) S 180 0 min 0,0 UV-I 10,8 C 12,8 C 0,0 km/h (0 Bft)
25.10.2009 15:50 11,8 C 10,3 C 11,6 C 12,6 C 12,6 C 0,8 C 93 % 95 % 21 % 1013,2 hPa 0,0 l/m 0,3 km/h (0 Bft) W 270 0 min 0,0 UV-I 10,7 C 12,6 C 0,0 km/h (0 Bft)
25.10.2009 15:55 11,7 C 10,4 C 11,6 C 12,6 C 12,6 C 0,9 C 93 % 95 % 24 % 1013,2 hPa 0,0 l/m 0,2 km/h (0 Bft) O-NO 67 0 min 0,0 UV-I 10,6 C 12,6 C 0,0 km/h (0 Bft)
25.10.2009 16:00 11,7 C 10,4 C 11,5 C 12,6 C 12,6 C 0,9 C 93 % 96 % 24 % 1014,0 hPa 0,0 l/m 0,0 km/h (0 Bft) N-NO 22 0 min 0,0 UV-I 10,6 C 12,6 C 0,0 km/h (0 Bft)
25.10.2009 16:10 11,7 C 10,4 C 11,5 C 12,4 C 12,4 C 0,7 C 93 % 96 % 18 % 1014,0 hPa 0,0 l/m 0,0 km/h (0 Bft) NW 315 0 min 0,0 UV-I 10,6 C 12,4 C 0,0 km/h (0 Bft)
25.10.2009 16:15 11,7 C 10,4 C 11,5 C 12,4 C 12,4 C 0,7 C 93 % 96 % 18 % 1014,0 hPa 0,0 l/m 0,0 km/h (0 Bft) NW 315 0 min 0,0 UV-I 10,6 C 12,4 C 0,0 km/h (0 Bft)
25.10.2009 16:20 11,6 C 10,3 C 11,4 C 12,4 C 12,4 C 0,8 C 93 % 96 % 21 % 1014,2 hPa 0,0 l/m 0,0 km/h (0 Bft) NW 315 0 min 0,0 UV-I 10,5 C 12,4 C 0,0 km/h (0 Bft)
25.10.2009 16:25 11,7 C 10,4 C 11,5 C 12,4 C 12,4 C 0,7 C 93 % 96 % 18 % 1014,2 hPa 0,0 l/m 0,0 km/h (0 Bft) O-NO 67 0 min 0,0 UV-I 10,6 C 12,4 C 0,0 km/h (0 Bft)
25.10.2009 16:30 11,7 C 10,5 C 11,3 C 12,3 C 12,3 C 0,6 C 93 % 96 % 16 % 1014,2 hPa 0,0 l/m 0,0 km/h (0 Bft) O-NO 67 0 min 0,0 UV-I 10,6 C 12,3 C 0,0 km/h (0 Bft)
25.10.2009 16:35 11,6 C 10,5 C 11,3 C 12,2 C 12,2 C 0,6 C 93 % 96 % 16 % 1014,2 hPa 0,0 l/m 0,0 km/h (0 Bft) O-NO 67 0 min 0,0 UV-I 10,5 C 12,2 C 0,0 km/h (0 Bft)
25.10.2009 16:40 11,6 C 10,5 C 11,3 C 12,2 C 12,2 C 0,6 C 93 % 96 % 16 % 1014,5 hPa 0,0 l/m 0,0 km/h (0 Bft) N-NO 22 0 min 0,0 UV-I 10,5 C 12,2 C 0,0 km/h (0 Bft)
25.10.2009 16:45 11,6 C 10,5 C 11,3 C 12,2 C 12,2 C 0,6 C 93 % 96 % 16 % 1014,5 hPa 0,0 l/m 0,0 km/h (0 Bft) N-NO 22 0 min 0,0 UV-I 10,5 C 12,2 C 0,0 km/h (0 Bft)
25.10.2009 16:50 11,6 C 10,5 C 11,3 C 12,1 C 12,1 C 0,5 C 93 % 96 % 13 % 1014,5 hPa 0,0 l/m 0,0 km/h (0 Bft) N-NO 22 0 min 0,0 UV-I 10,5 C 12,1 C 0,0 km/h (0 Bft)
25.10.2009 16:55 11,6 C 10,5 C 11,2 C 12,1 C 12,1 C 0,5 C 93 % 96 % 13 % 1014,5 hPa 0,0 l/m 0,0 km/h (0 Bft) O-NO 67 0 min 0,0 UV-I 10,5 C 12,1 C 0,0 km/h (0 Bft)
25.10.2009 17:00 11,6 C 10,6 C 11,3 C 12,1 C 12,1 C 0,5 C 94 % 96 % 13 % 1014,3 hPa 0,0 l/m 0,0 km/h (0 Bft) O-NO 67 0 min 0,0 UV-I 10,7 C 12,1 C 0,0 km/h (0 Bft)
25.10.2009 17:03 11,5 C 10,6 C 11,3 C 12,1 C 12,1 C 0,6 C 94 % 96 % 16 % 1014,3 hPa 0,0 l/m 0,0 km/h (0 Bft) O-NO 67 0 min 0,0 UV-I 10,6 C 12,1 C 0,0 km/h (0 Bft)
25.10.2009 17:06 11,5 C 10,6 C 11,3 C 12,1 C 12,1 C 0,6 C 94 % 96 % 16 % 1014,3 hPa 0,0 l/m 0,0 km/h (0 Bft) O-NO 67 0 min 0,0 UV-I 10,6 C 12,1 C 0,0 km/h (0 Bft)
25.10.2009 17:10 11,5 C 10,6 C 11,3 C 12,0 C 12,0 C 0,5 C 94 % 96 % 13 % 1014,3 hPa 0,0 l/m 0,0 km/h (0 Bft) S 180 0 min 0,0 UV-I 10,6 C 12,0 C 0,0 km/h (0 Bft)
25.10.2009 17:15 11,4 C 10,6 C 11,2 C 12,0 C 12,0 C 0,6 C 94 % 96 % 16 % 1014,3 hPa 0,0 l/m 0,0 km/h (0 Bft) O-NO 67 0 min 0,0 UV-I 10,5 C 12,0 C 0,0 km/h (0 Bft)
25.10.2009 17:18 11,5 C 10,6 C 11,2 C 12,0 C 12,0 C 0,5 C 94 % 96 % 13 % 1014,6 hPa 0,0 l/m 0,0 km/h (0 Bft) O-SO 112 0 min 0,0 UV-I 10,6 C 12,0 C 0,0 km/h (0 Bft)
25.10.2009 17:23 11,4 C 10,6 C 11,2 C 12,0 C 12,0 C 0,6 C 94 % 96 % 16 % 1014,6 hPa 0,0 l/m 0,0 km/h (0 Bft) O-SO 112 0 min 0,0 UV-I 10,5 C 12,0 C 0,0 km/h (0 Bft)
25.10.2009 17:30 11,5 C 10,6 C 11,2 C 12,0 C 12,0 C 0,5 C 94 % 96 % 13 % 1014,6 hPa 0,0 l/m 0,0 km/h (0 Bft) O-NO 67 0 min 0,0 UV-I 10,6 C 12,0 C 0,0 km/h (0 Bft)
25.10.2009 17:35 11,5 C 10,6 C 11,1 C 12,0 C 12,0 C 0,5 C 94 % 96 % 13 % 1014,6 hPa 0,0 l/m 0,0 km/h (0 Bft) O-NO 67 5 min 0,0 UV-I 10,6 C 12,0 C 0,0 km/h (0 Bft)
25.10.2009 17:40 11,5 C 10,6 C 11,1 C 11,9 C 11,9 C 0,4 C 94 % 96 % 11 % 1014,5 hPa 0,0 l/m 0,0 km/h (0 Bft) O-NO 67 5 min 0,0 UV-I 10,6 C 11,9 C 0,0 km/h (0 Bft)
25.10.2009 17:45 11,4 C 10,6 C 11,0 C 11,7 C 11,7 C 0,3 C 94 % 96 % 0 % 1014,5 hPa 0,0 l/m 0,0 km/h (0 Bft) O-NO 67 0 min 0,0 UV-I 10,5 C 11,7 C 0,0 km/h (0 Bft)
25.10.2009 17:50 11,3 C 10,6 C 11,0 C 11,6 C 11,6 C 0,3 C 94 % 96 % 0 % 1014,5 hPa 0,0 l/m 0,0 km/h (0 Bft) NW 315 0 min 0,0 UV-I 10,4 C 11,6 C 0,0 km/h (0 Bft)
25.10.2009 17:55 11,3 C 10,6 C 11,0 C 11,6 C 11,6 C 0,3 C 94 % 96 % 0 % 1014,5 hPa 0,0 l/m 0,0 km/h (0 Bft) NW 315 0 min 0,0 UV-I 10,4 C 11,6 C 0,0 km/h (0 Bft)
25.10.2009 18:00 11,3 C 10,7 C 11,0 C 11,6 C 11,6 C 0,3 C 94 % 96 % 0 % 1014,8 hPa 0,0 l/m 0,0 km/h (0 Bft) NW 315 0 min 0,0 UV-I 10,4 C 11,6 C 0,0 km/h (0 Bft)
25.10.2009 18:10 11,2 C 10,7 C 10,9 C 11,3 C 11,3 C 0,1 C 94 % 96 % 0 % 1014,8 hPa 0,0 l/m 0,0 km/h (0 Bft) NW 315 0 min 0,0 UV-I 10,3 C 11,3 C 0,0 km/h (0 Bft)
25.10.2009 18:15 11,2 C 10,7 C 10,8 C 11,1 C 11,0 C 0,0 C 94 % 96 % 0 % 1014,8 hPa 0,0 l/m 0,0 km/h (0 Bft) NW 315 0 min 0,0 UV-I 10,3 C 11,0 C 0,0 km/h (0 Bft)
25.10.2009 18:20 11,1 C 10,7 C 10,8 C 11,0 C 10,7 C 0,0 C 94 % 96 % 0 % 1014,9 hPa 0,0 l/m 0,0 km/h (0 Bft) NW 315 0 min 0,0 UV-I 10,2 C 10,7 C 0,0 km/h (0 Bft)
25.10.2009 18:25 11,1 C 10,7 C 10,7 C 11,0 C 10,7 C 0,0 C 94 % 96 % 0 % 1014,9 hPa 0,0 l/m 0,0 km/h (0 Bft) NW 315 0 min 0,0 UV-I 10,2 C 10,7 C 0,0 km/h (0 Bft)
25.10.2009 18:30 11,0 C 10,7 C 10,6 C 10,9 C 10,7 C 0,0 C 94 % 96 % 0 % 1014,9 hPa 0,0 l/m 0,0 km/h (0 Bft) NW 315 0 min 0,0 UV-I 10,1 C 10,7 C 0,0 km/h (0 Bft)
25.10.2009 18:35 11,1 C 10,7 C 10,7 C 11,0 C 10,7 C 0,0 C 94 % 96 % 0 % 1014,9 hPa 0,0 l/m 0,0 km/h (0 Bft) NW 315 0 min 0,0 UV-I 10,2 C 10,7 C 0,0 km/h (0 Bft)
25.10.2009 18:40 11,1 C 10,8 C 10,5 C 11,0 C 10,7 C 0,0 C 94 % 96 % 0 % 1015,2 hPa 0,0 l/m 0,0 km/h (0 Bft) NW 315 0 min 0,0 UV-I 10,2 C 10,7 C 0,0 km/h (0 Bft)
25.10.2009 18:45 11,0 C 10,8 C 10,4 C 10,9 C 10,6 C 0,0 C 94 % 96 % 0 % 1015,2 hPa 0,0 l/m 0,0 km/h (0 Bft) NW 315 0 min 0,0 UV-I 10,1 C 10,6 C 0,0 km/h (0 Bft)
25.10.2009 18:50 10,9 C 10,7 C 10,3 C 10,8 C 10,6 C 0,0 C 94 % 96 % 0 % 1015,2 hPa 0,0 l/m 0,0 km/h (0 Bft) NW 315 0 min 0,0 UV-I 10,0 C 10,6 C 0,0 km/h (0 Bft)
25.10.2009 18:55 10,9 C 10,8 C 10,4 C 10,8 C 10,6 C 0,0 C 94 % 96 % 0 % 1015,2 hPa 0,0 l/m 0,0 km/h (0 Bft) NW 315 0 min 0,0 UV-I 10,0 C 10,6 C 0,0 km/h (0 Bft)
25.10.2009 19:00 10,9 C 10,8 C 10,2 C 10,8 C 10,6 C 0,0 C 94 % 96 % 0 % 1014,9 hPa 0,0 l/m 0,0 km/h (0 Bft) NW 315 0 min 0,0 UV-I 10,0 C 10,6 C 0,0 km/h (0 Bft)
25.10.2009 19:10 10,7 C 10,8 C 10,1 C 10,6 C 10,3 C 0,0 C 93 % 96 % 0 % 1014,9 hPa 0,0 l/m 0,0 km/h (0 Bft) NW 315 0 min 0,0 UV-I 9,6 C 10,3 C 0,0 km/h (0 Bft)
25.10.2009 19:15 10,7 C 10,8 C 10,0 C 10,5 C 10,1 C 0,0 C 93 % 96 % 0 % 1014,9 hPa 0,0 l/m 0,0 km/h (0 Bft) NW 315 0 min 0,0 UV-I 9,6 C 10,1 C 0,0 km/h (0 Bft)
25.10.2009 19:20 10,7 C 10,8 C 10,0 C 10,5 C 10,0 C 0,0 C 94 % 96 % 0 % 1015,0 hPa 0,0 l/m 0,0 km/h (0 Bft) W-NW 292 0 min 0,0 UV-I 9,8 C 10,0 C 0,0 km/h (0 Bft)
25.10.2009 19:25 10,7 C 10,8 C 9,9 C 10,4 C 9,9 C 0,0 C 94 % 96 % 0 % 1015,0 hPa 0,0 l/m 0,0 km/h (0 Bft) O 90 0 min 0,0 UV-I 9,8 C 9,9 C 0,0 km/h (0 Bft)
25.10.2009 19:30 10,5 C 10,7 C 9,9 C 10,3 C 9,8 C 0,0 C 94 % 96 % 0 % 1015,0 hPa 0,0 l/m 0,0 km/h (0 Bft) SW 225 0 min 0,0 UV-I 9,6 C 9,8 C 0,0 km/h (0 Bft)
25.10.2009 19:35 10,4 C 10,7 C 9,7 C 10,1 C 9,6 C 0,0 C 94 % 96 % 0 % 1015,0 hPa 0,0 l/m 0,0 km/h (0 Bft) SO 135 0 min 0,0 UV-I 9,5 C 9,6 C 0,0 km/h (0 Bft)
25.10.2009 19:40 10,4 C 10,7 C 9,7 C 10,1 C 9,6 C 0,0 C 94 % 96 % 0 % 1014,9 hPa 0,0 l/m 0,0 km/h (0 Bft) SO 135 0 min 0,0 UV-I 9,5 C 9,6 C 0,0 km/h (0 Bft)
25.10.2009 19:45 10,5 C 10,7 C 9,7 C 10,3 C 9,8 C 0,0 C 94 % 96 % 0 % 1014,9 hPa 0,0 l/m 0,0 km/h (0 Bft) SO 135 0 min 0,0 UV-I 9,6 C 9,8 C 0,0 km/h (0 Bft)
25.10.2009 19:50 10,3 C 10,8 C 9,7 C 10,1 C 9,8 C 0,0 C 94 % 97 % 0 % 1014,9 hPa 0,0 l/m 0,0 km/h (0 Bft) SO 135 0 min 0,0 UV-I 9,4 C 9,8 C 0,0 km/h (0 Bft)
25.10.2009 19:55 10,4 C 10,8 C 9,7 C 10,3 C 10,0 C 0,0 C 94 % 97 % 0 % 1014,9 hPa 0,0 l/m 0,2 km/h (0 Bft) O-NO 67 0 min 0,0 UV-I 9,5 C 10,0 C 0,0 km/h (0 Bft)
25.10.2009 20:00 10,5 C 10,8 C 9,9 C 10,4 C 10,1 C 0,0 C 94 % 97 % 0 % 1015,0 hPa 0,0 l/m 0,2 km/h (0 Bft) SO 135 0 min 0,0 UV-I 9,6 C 10,1 C 0,0 km/h (0 Bft)
25.10.2009 20:06 10,4 C 10,8 C 9,9 C 10,3 C 10,1 C 0,0 C 94 % 97 % 0 % 1015,0 hPa 0,0 l/m 0,2 km/h (0 Bft) SW 225 0 min 0,0 UV-I 9,5 C 10,1 C 0,0 km/h (0 Bft)
25.10.2009 20:10 10,5 C 10,8 C 9,9 C 10,4 C 10,1 C 0,0 C 94 % 97 % 0 % 1015,0 hPa 0,0 l/m 0,0 km/h (0 Bft) O-NO 67 0 min 0,0 UV-I 9,6 C 10,1 C 0,0 km/h (0 Bft)
25.10.2009 20:15 10,5 C 10,8 C 9,9 C 10,4 C 10,1 C 0,0 C 94 % 97 % 0 % 1015,0 hPa 0,0 l/m 0,2 km/h (0 Bft) NW 315 0 min 0,0 UV-I 9,6 C 10,1 C 0,0 km/h (0 Bft)
25.10.2009 20:20 10,4 C 10,8 C 9,8 C 10,3 C 10,0 C 0,0 C 94 % 97 % 0 % 1015,1 hPa 0,0 l/m 0,3 km/h (0 Bft) SW 225 0 min 0,0 UV-I 9,5 C 10,0 C 0,0 km/h (0 Bft)
25.10.2009 20:25 10,3 C 10,8 C 9,9 C 10,1 C 9,8 C 0,0 C 94 % 97 % 0 % 1015,1 hPa 0,0 l/m 0,2 km/h (0 Bft) O-NO 67 0 min 0,0 UV-I 9,4 C 9,8 C 0,0 km/h (0 Bft)
25.10.2009 20:30 10,2 C 10,8 C 9,9 C 10,0 C 9,5 C 0,0 C 94 % 97 % 0 % 1015,1 hPa 0,0 l/m 0,0 km/h (0 Bft) O-NO 67 0 min 0,0 UV-I 9,3 C 9,5 C 0,0 km/h (0 Bft)
25.10.2009 20:35 10,2 C 10,9 C 9,7 C 9,9 C 9,3 C 0,0 C 94 % 97 % 0 % 1015,1 hPa 0,0 l/m 0,0 km/h (0 Bft) NO 45 0 min 0,0 UV-I 9,3 C 9,3 C 0,0 km/h (0 Bft)
25.10.2009 20:40 10,0 C 10,9 C 9,6 C 9,7 C 9,0 C 0,0 C 93 % 97 % 0 % 1015,2 hPa 0,0 l/m 0,0 km/h (0 Bft) W 270 0 min 0,0 UV-I 8,9 C 9,0 C 0,0 km/h (0 Bft)
25.10.2009 20:45 10,1 C 10,8 C 9,5 C 9,7 C 9,0 C 0,0 C 93 % 96 % 0 % 1015,2 hPa 0,0 l/m 0,0 km/h (0 Bft) SO 135 0 min 0,0 UV-I 9,0 C 9,0 C 0,0 km/h (0 Bft)
25.10.2009 20:50 10,0 C 10,8 C 9,5 C 9,6 C 8,8 C 0,0 C 93 % 96 % 0 % 1015,2 hPa 0,0 l/m 0,0 km/h (0 Bft) SO 135 0 min 0,0 UV-I 8,9 C 8,8 C 0,0 km/h (0 Bft)
25.10.2009 20:55 9,9 C 10,8 C 9,3 C 9,5 C 8,6 C 0,0 C 93 % 96 % 0 % 1015,2 hPa 0,0 l/m 0,0 km/h (0 Bft) O-NO 67 0 min 0,0 UV-I 8,8 C 8,6 C 0,0 km/h (0 Bft)
25.10.2009 21:00 9,9 C 10,8 C 9,2 C 9,4 C 8,5 C 0,0 C 93 % 96 % 0 % 1015,1 hPa 0,0 l/m 0,0 km/h (0 Bft) O 90 0 min 0,0 UV-I 8,8 C 8,5 C 0,0 km/h (0 Bft)
25.10.2009 21:06 9,7 C 10,8 C 9,0 C 9,3 C 8,5 C 0,0 C 93 % 96 % 0 % 1015,1 hPa 0,0 l/m 0,0 km/h (0 Bft) O 90 0 min 0,0 UV-I 8,6 C 8,5 C 0,0 km/h (0 Bft)
25.10.2009 21:10 9,6 C 10,8 C 9,1 C 9,2 C 8,4 C 0,0 C 93 % 96 % 0 % 1015,1 hPa 0,0 l/m 0,0 km/h (0 Bft) NW 315 0 min 0,0 UV-I 8,5 C 8,4 C 0,0 km/h (0 Bft)
25.10.2009 21:15 9,7 C 10,8 C 9,1 C 9,2 C 8,3 C 0,0 C 93 % 96 % 0 % 1015,1 hPa 0,0 l/m 0,0 km/h (0 Bft) O-NO 67 0 min 0,0 UV-I 8,6 C 8,3 C 0,0 km/h (0 Bft)
25.10.2009 21:20 9,5 C 10,8 C 8,9 C 9,1 C 8,3 C 0,0 C 93 % 96 % 0 % 1015,5 hPa 0,0 l/m 0,0 km/h (0 Bft) O-NO 67 0 min 0,0 UV-I 8,4 C 8,3 C 0,0 km/h (0 Bft)
25.10.2009 21:25 9,4 C 10,8 C 8,8 C 9,0 C 8,2 C 0,0 C 93 % 96 % 0 % 1015,5 hPa 0,0 l/m 0,0 km/h (0 Bft) O-NO 67 0 min 0,0 UV-I 8,3 C 8,2 C 0,0 km/h (0 Bft)
25.10.2009 21:30 9,4 C 10,8 C 8,8 C 9,0 C 8,1 C 0,0 C 93 % 96 % 0 % 1015,5 hPa 0,0 l/m 0,0 km/h (0 Bft) O-NO 67 0 min 0,0 UV-I 8,3 C 8,1 C 0,0 km/h (0 Bft)
25.10.2009 21:35 9,3 C 10,8 C 8,7 C 8,9 C 8,0 C 0,0 C 92 % 96 % 0 % 1015,5 hPa 0,0 l/m 0,0 km/h (0 Bft) O-NO 67 0 min 0,0 UV-I 8,1 C 8,0 C 0,0 km/h (0 Bft)
25.10.2009 21:40 9,3 C 10,8 C 8,7 C 8,9 C 8,0 C 0,0 C 93 % 96 % 0 % 1015,5 hPa 0,0 l/m 0,0 km/h (0 Bft) O-NO 67 0 min 0,0 UV-I 8,2 C 8,0 C 0,0 km/h (0 Bft)
25.10.2009 21:45 9,2 C 10,8 C 8,5 C 8,8 C 8,0 C 0,0 C 93 % 96 % 0 % 1015,5 hPa 0,0 l/m 0,0 km/h (0 Bft) O-NO 67 0 min 0,0 UV-I 8,1 C 8,0 C 0,0 km/h (0 Bft)
25.10.2009 21:50 9,2 C 10,8 C 8,5 C 8,7 C 7,7 C 0,0 C 93 % 96 % 0 % 1015,5 hPa 0,0 l/m 0,0 km/h (0 Bft) SW 225 0 min 0,0 UV-I 8,1 C 7,7 C 0,0 km/h (0 Bft)
25.10.2009 21:55 9,1 C 10,8 C 8,4 C 8,6 C 7,5 C 0,0 C 93 % 96 % 0 % 1015,5 hPa 0,0 l/m 0,0 km/h (0 Bft) SW 225 0 min 0,0 UV-I 8,0 C 7,5 C 0,0 km/h (0 Bft)
25.10.2009 22:00 9,1 C 10,8 C 8,2 C 8,5 C 7,3 C 0,0 C 92 % 95 % 0 % 1015,5 hPa 0,0 l/m 0,0 km/h (0 Bft) SW 225 0 min 0,0 UV-I 7,9 C 7,3 C 0,0 km/h (0 Bft)
25.10.2009 22:10 8,9 C 10,8 C 8,0 C 8,3 C 7,1 C 0,0 C 92 % 95 % 0 % 1015,5 hPa 0,0 l/m 0,0 km/h (0 Bft) SO 135 0 min 0,0 UV-I 7,7 C 7,1 C 0,0 km/h (0 Bft)
25.10.2009 22:15 8,9 C 10,8 C 7,9 C 8,3 C 7,1 C 0,0 C 92 % 95 % 0 % 1015,5 hPa 0,0 l/m 0,0 km/h (0 Bft) SO 135 0 min 0,0 UV-I 7,7 C 7,1 C 0,0 km/h (0 Bft)
25.10.2009 22:20 8,7 C 10,7 C 7,7 C 8,2 C 7,1 C 0,0 C 92 % 95 % 0 % 1015,6 hPa 0,0 l/m 0,0 km/h (0 Bft) O-NO 67 0 min 0,0 UV-I 7,5 C 7,1 C 0,0 km/h (0 Bft)
25.10.2009 22:25 8,5 C 10,7 C 7,6 C 8,0 C 7,1 C 0,0 C 92 % 95 % 0 % 1015,6 hPa 0,0 l/m 0,0 km/h (0 Bft) O-NO 67 0 min 0,0 UV-I 7,3 C 7,1 C 0,0 km/h (0 Bft)
25.10.2009 22:30 8,5 C 10,7 C 7,6 C 8,0 C 7,0 C 0,0 C 92 % 96 % 0 % 1015,6 hPa 0,0 l/m 0,0 km/h (0 Bft) O-NO 67 0 min 0,0 UV-I 7,3 C 7,0 C 0,0 km/h (0 Bft)
25.10.2009 22:35 8,5 C 10,7 C 7,6 C 8,0 C 7,0 C 0,0 C 92 % 95 % 0 % 1015,6 hPa 0,0 l/m 0,0 km/h (0 Bft) O-NO 67 0 min 0,0 UV-I 7,3 C 7,0 C 0,0 km/h (0 Bft)
25.10.2009 22:40 8,4 C 10,7 C 7,5 C 7,9 C 6,8 C 0,0 C 92 % 95 % 0 % 1016,3 hPa 0,0 l/m 0,0 km/h (0 Bft) O-NO 67 0 min 0,0 UV-I 7,2 C 6,8 C 0,0 km/h (0 Bft)
25.10.2009 22:45 8,4 C 10,7 C 7,5 C 7,9 C 6,8 C 0,0 C 92 % 95 % 0 % 1016,3 hPa 0,0 l/m 0,0 km/h (0 Bft) O-NO 67 0 min 0,0 UV-I 7,2 C 6,8 C 0,0 km/h (0 Bft)
25.10.2009 22:50 8,3 C 10,7 C 7,3 C 7,8 C 6,7 C 0,0 C 92 % 95 % 0 % 1016,3 hPa 0,0 l/m 0,0 km/h (0 Bft) SO 135 0 min 0,0 UV-I 7,1 C 6,7 C 0,0 km/h (0 Bft)
25.10.2009 22:55 8,3 C 10,7 C 7,3 C 7,8 C 6,7 C 0,0 C 92 % 96 % 0 % 1016,3 hPa 0,0 l/m 0,0 km/h (0 Bft) S-SO 157 0 min 0,0 UV-I 7,1 C 6,7 C 0,0 km/h (0 Bft)
25.10.2009 23:00 8,3 C 10,7 C 7,3 C 7,8 C 6,7 C 0,0 C 92 % 96 % 0 % 1015,9 hPa 0,0 l/m 0,0 km/h (0 Bft) S 180 0 min 0,0 UV-I 7,1 C 6,7 C 0,0 km/h (0 Bft)
25.10.2009 23:10 8,2 C 10,7 C 7,2 C 7,7 C 6,7 C 0,0 C 92 % 96 % 0 % 1015,9 hPa 0,0 l/m 0,0 km/h (0 Bft) O-NO 67 0 min 0,0 UV-I 7,0 C 6,7 C 0,0 km/h (0 Bft)
25.10.2009 23:15 8,3 C 10,7 C 7,3 C 7,8 C 6,8 C 0,0 C 92 % 96 % 0 % 1015,9 hPa 0,0 l/m 0,0 km/h (0 Bft) NO 45 0 min 0,0 UV-I 7,1 C 6,8 C 0,0 km/h (0 Bft)
25.10.2009 23:20 8,3 C 10,7 C 7,4 C 7,8 C 6,8 C 0,0 C 92 % 96 % 0 % 1015,9 hPa 0,0 l/m 0,0 km/h (0 Bft) NO 45 0 min 0,0 UV-I 7,1 C 6,8 C 0,0 km/h (0 Bft)
25.10.2009 23:25 8,3 C 10,7 C 7,5 C 7,8 C 6,8 C 0,0 C 92 % 96 % 0 % 1015,9 hPa 0,0 l/m 0,0 km/h (0 Bft) O-NO 67 0 min 0,0 UV-I 7,1 C 6,8 C 0,0 km/h (0 Bft)
25.10.2009 23:30 8,3 C 10,7 C 7,4 C 7,9 C 7,0 C 0,0 C 93 % 96 % 0 % 1015,9 hPa 0,0 l/m 0,0 km/h (0 Bft) O-NO 67 0 min 0,0 UV-I 7,2 C 7,0 C 0,0 km/h (0 Bft)
25.10.2009 23:35 8,2 C 10,7 C 7,4 C 7,8 C 7,0 C 0,0 C 93 % 97 % 0 % 1015,9 hPa 0,0 l/m 0,0 km/h (0 Bft) O-NO 67 0 min 0,0 UV-I 7,1 C 7,0 C 0,0 km/h (0 Bft)
25.10.2009 23:40 8,3 C 10,7 C 7,5 C 7,8 C 6,9 C 0,0 C 92 % 96 % 0 % 1015,7 hPa 0,0 l/m 0,0 km/h (0 Bft) O-NO 67 0 min 0,0 UV-I 7,1 C 6,9 C 0,0 km/h (0 Bft)
25.10.2009 23:45 8,1 C 10,7 C 7,4 C 7,7 C 6,9 C 0,0 C 92 % 96 % 0 % 1015,7 hPa 0,0 l/m 0,0 km/h (0 Bft) O-NO 67 0 min 0,0 UV-I 6,9 C 6,9 C 0,0 km/h (0 Bft)
25.10.2009 23:50 8,1 C 10,7 C 7,5 C 7,7 C 6,9 C 0,0 C 92 % 97 % 0 % 1015,7 hPa 0,0 l/m 0,0 km/h (0 Bft) O 90 0 min 0,0 UV-I 6,9 C 6,9 C 0,0 km/h (0 Bft)
25.10.2009 23:55 8,1 C 10,7 C 7,4 C 7,7 C 6,9 C 0,0 C 93 % 96 % 0 % 1015,7 hPa 0,0 l/m 0,0 km/h (0 Bft) O 90 0 min 0,0 UV-I 7,0 C 6,9 C 0,0 km/h (0 Bft)
_ Min-Zeit 03:15 06:10 03:10 03:15 03:15 00:00 01:55 12:55 00:00 15:29 - 00:00 - - - 00:00 03:15 03:15 00:00
Minimum _ 5,2 C 9,5 C 4,4 C 4,5 C 3,0 C 0,0 C 89 % 92 % 0 % 1012,9 hPa - 0,0 km/h (0 Bft) - - - 0,0 UV-I 3,5 C 3,0 C 0,0 km/h (0 Bft)
_ Max-Zeit 12:20 20:35 12:20 11:40 11:40 11:20 08:10 08:25 11:20 22:40 00:00 11:35 - - 08:10 11:10 15:29 11:40 11:35
Maximum _ 12,3 C 10,9 C 12,1 C 15,0 C 15,0 C 3,2 C 95 % 98 % 84 % 1016,3 hPa 0,0 l/m 4,2 km/h
S (1 Bft)
- - 10 min 0,4 UV-I 10,8 C 15,0 C 12,6 km/h
S (3 Bft)
Durchschnitt _ 9,5 C 10,1 C 9,2 C 10,1 C 9,8 C 0,8 C 92 % 95 % 19 % 1014,6 hPa #0,0 l/m 0,6 km/h (0 Bft) SW - #50 min. 0,2 UV-I 8,3 C 9,8 C 1,0 km/h (0 Bft)
2013 www.wetterstation-wechselburg.de